[{"header": {"dx": 0.06612293990616946, "dy": 0.0552356325346848, "nx": 98, "ny": 59, "la1": 35.046912555036876, "la2": 31.78801023549047, "lo1": -121.43107172385933, "lo2": -114.95102361305473, "refTime": "2026041302", "parameterCategory": 1, "parameterNumber": 2}, "data": [13.62, 13.19, 12.45, 12.45, 11.52, 11.03, 11.03, 11.52, 11.93, 12.74, 11.69, 9.52, 10.19, 8.59, 7.9, 8.93, 8.24, 8.24, 7.9, 7.9, 8.22, 9.27, 7.9, 7.9, 7.72, 8.53, 8.07, 7.93, 7.64, 6.7, 5.86, 6.08, 6.92, 8.53, 10.18, 9.39, 9.2, 0.0, -3.4, -3.6, 0.0, 9.83, 8.22, 9.17, 11.44, 13.27, 14.28, 13.96, 12.96, 10.83, 10.57, 10.57, 11.53, 11.53, 11.94, 11.6, 11.94, 12.4, 11.69, 11.69, 11.76, 11.76, 11.8, 10.79, 10.12, 8.97, 8.43, 9.16, 9.16, 9.81, 10.02, 10.57, 11.38, 13.05, 15.14, 15.39, 15.49, 15.56, 15.67, 13.82, 12.63, 11.0, 10.66, 11.61, 6.65, 3.93, 4.97, 5.16, 7.13, 8.66, 9.8, 10.3, 10.3, 10.58, 10.58, 10.92, 10.12, 8.38, 13.2, 13.19, 12.74, 12.45, 11.52, 11.03, 11.36, 11.87, 11.93, 11.93, 11.31, 10.37, 9.46, 8.15, 8.22, 7.9, 7.27, 8.22, 7.9, 6.69, 8.53, 8.53, 7.73, 8.15, 7.42, 7.42, 7.42, 6.67, 6.24, 5.06, 4.81, 5.48, 5.11, 5.4, 3.11, -0.0, -8.05, -8.05, -8.49, -0.0, -0.0, 3.68, 5.8, 9.31, 11.7, 13.29, 13.91, 13.28, 11.43, 10.22, 10.75, 11.2, 11.68, 11.26, 11.6, 11.6, 11.6, 11.6, 11.69, 11.69, 11.76, 11.8, 10.79, 10.12, 8.1, 8.18, 8.91, 9.54, 9.54, 10.87, 11.7, 11.91, 12.46, 13.71, 14.75, 15.36, 15.36, 15.56, 15.67, 13.82, 12.63, 11.0, 10.66, 11.61, 6.65, 3.93, 4.97, 5.16, 7.13, 8.66, 9.8, 10.3, 10.3, 10.58, 10.58, 10.92, 10.12, 8.38, 13.2, 13.19, 12.74, 12.45, 11.52, 11.03, 11.36, 11.87, 12.29, 11.57, 10.56, 8.42, 8.93, 8.22, 8.15, 8.15, 7.9, 7.9, 7.15, 8.85, 7.27, 7.26, 6.45, 7.28, 8.31, 7.26, 6.86, 5.95, 3.82, 2.71, 3.14, 4.04, 3.91, 2.81, 1.09, -0.0, -0.0, -0.0, 2.97, 2.02, 3.68, 5.15, 8.93, 10.98, 13.07, 14.22, 14.22, 12.96, 10.12, 10.92, 11.25, 11.33, 11.33, 11.33, 10.92, 11.68, 11.6, 12.05, 11.69, 12.13, 11.76, 11.16, 9.64, 7.89, 6.99, 7.97, 8.91, 9.54, 10.87, 11.38, 12.8, 13.74, 13.2, 13.78, 15.2, 15.27, 15.18, 15.18, 13.96, 13.55, 12.14, 11.4, 10.75, 7.19, 3.02, 3.47, 4.24, 5.33, 7.13, 9.21, 10.3, 10.63, 10.38, 10.73, 10.73, 10.73, 9.48, 8.91, 13.35, 12.79, 12.74, 12.45, 11.52, 11.03, 11.36, 11.87, 11.93, 11.69, 10.18, 8.79, 9.27, 7.9, 7.9, 7.9, 8.22, 8.53, 7.73, 7.27, 7.27, 6.7, 6.98, 7.56, 8.02, 8.31, 6.24, 4.6, 2.04, 0.93, 0.89, 1.55, 2.33, 2.4, 3.47, 2.49, 2.7, 5.75, 5.2, 3.85, 5.5, 7.77, 9.89, 10.51, 11.58, 11.7, 10.75, 10.3, 10.63, 10.58, 10.65, 10.99, 10.65, 10.99, 10.54, 10.99, 11.69, 11.69, 12.13, 12.03, 11.8, 9.64, 8.15, 7.21, 7.54, 8.22, 9.54, 10.18, 10.95, 11.5, 13.05, 14.1, 14.91, 13.39, 14.84, 15.34, 14.18, 13.29, 15.51, 13.28, 11.49, 12.0, 9.08, 2.81, 2.09, 3.09, 4.96, 6.4, 8.51, 9.8, 12.65, 11.93, 11.31, 11.31, 10.85, 9.97, 8.91, 8.23, 13.35, 12.99, 13.19, 12.45, 11.03, 11.03, 11.36, 11.87, 12.45, 11.69, 10.18, 8.79, 8.93, 8.73, 8.24, 8.93, 8.22, 7.73, 7.73, 7.02, 6.94, 6.98, 5.52, 7.26, 5.69, 5.99, 6.63, 4.72, 2.71, 0.98, -0.0, -0.0, 0.97, 2.82, 3.53, 5.0, 5.92, 8.3, 9.39, 6.81, 6.57, 8.35, 8.16, 8.15, 8.66, 9.27, 9.8, 10.3, 10.3, 10.73, 10.38, 10.38, 9.92, 9.8, 10.54, 10.99, 10.99, 11.76, 12.03, 11.8, 10.48, 7.69, 5.99, 6.62, 7.36, 8.46, 9.54, 9.81, 10.68, 11.7, 12.52, 14.77, 15.74, 16.79, 14.1, 13.59, 13.38, 12.48, 14.26, 13.82, 11.57, 11.21, 4.87, 1.26, 1.13, 2.31, 5.46, 7.92, 9.8, 11.63, 12.29, 11.69, 11.38, 11.12, 10.62, 10.02, 9.48, 8.83, 13.35, 13.35, 12.79, 12.09, 11.64, 11.03, 11.36, 12.09, 12.45, 11.69, 10.18, 8.42, 8.59, 8.38, 8.73, 8.73, 7.44, 7.73, 6.7, 6.21, 6.21, 6.4, 6.0, 5.8, 5.4, 3.82, 4.58, 3.92, 3.53, 2.71, 1.04, -0.0, 1.22, 2.93, 6.51, 6.9, 7.96, 10.36, 12.33, 6.59, 4.23, 4.52, 6.76, 7.93, 8.58, 9.12, 10.22, 10.92, 10.3, 9.97, 9.64, 9.48, 9.8, 9.8, 10.99, 11.34, 11.76, 12.18, 12.18, 11.16, 8.61, 5.14, 4.67, 6.27, 8.51, 9.17, 9.54, 9.27, 10.4, 11.22, 12.15, 12.97, 14.08, 15.02, 17.05, 14.95, 12.79, 12.47, 12.01, 12.01, 12.35, 6.6, 1.78, 1.46, 2.5, 3.69, 6.8, 9.34, 11.58, 11.76, 11.57, 11.97, 11.99, 11.38, 10.99, 10.02, 9.48, 8.83, 13.35, 13.35, 12.56, 12.09, 11.64, 11.64, 11.64, 12.09, 12.07, 11.69, 10.18, 7.76, 8.24, 8.24, 9.66, 7.9, 8.53, 8.85, 8.01, 6.94, 7.19, 7.93, 7.32, 7.0, 5.99, 6.6, 4.81, 3.93, 5.11, 4.8, 3.39, 1.04, 1.22, 2.7, 5.2, 6.73, 8.78, 9.8, 9.8, 4.71, 2.02, 3.56, 6.2, 7.58, 9.12, 9.92, 11.38, 11.58, 9.8, 9.13, 9.13, 9.02, 9.8, 10.65, 11.09, 11.8, 11.8, 11.81, 11.99, 10.23, 4.43, 2.81, 4.41, 6.13, 8.11, 9.78, 9.94, 9.73, 10.22, 11.53, 12.76, 12.5, 13.54, 14.96, 15.85, 16.24, 14.55, 12.45, 11.61, 11.53, 11.8, 4.42, 3.33, 2.96, 3.79, 5.3, 7.92, 11.06, 12.11, 11.53, 11.64, 12.56, 12.99, 11.69, 10.85, 9.69, 10.09, 9.48, 13.25, 13.2, 12.56, 11.72, 11.64, 11.64, 12.09, 12.09, 12.07, 11.77, 9.58, 7.76, 7.9, 7.9, 8.85, 7.9, 8.53, 9.17, 9.17, 8.38, 9.48, 10.73, 7.44, 5.81, 8.43, 7.82, 5.81, 5.98, 7.59, 6.9, 1.98, -0.0, 1.77, 3.96, 5.0, 7.28, 9.17, 8.49, 8.22, 5.98, 4.1, 4.38, 8.93, 10.87, 11.38, 10.43, 10.92, 11.58, 9.44, 9.8, 8.21, 9.48, 10.22, 10.65, 11.53, 11.58, 11.6, 11.97, 11.2, 7.28, 2.13, 1.89, 4.53, 7.2, 8.53, 9.78, 10.92, 11.58, 11.76, 12.99, 13.56, 14.53, 14.81, 15.49, 16.05, 15.17, 14.7, 13.53, 10.79, 11.38, 10.76, 7.6, 7.03, 5.78, 5.46, 6.78, 9.06, 10.97, 11.69, 11.58, 11.75, 12.04, 12.58, 11.69, 10.99, 10.59, 10.18, 9.8, 13.25, 13.2, 12.56, 12.27, 11.64, 11.64, 12.09, 12.65, 12.56, 11.38, 9.97, 9.67, 10.37, 10.12, 8.85, 8.85, 9.17, 9.48, 9.48, 9.48, 9.48, 11.16, 9.8, 4.52, 7.78, 7.9, 5.46, 7.69, 9.39, 5.31, -0.0, -0.0, 2.98, 5.15, 8.01, 9.67, 10.0, 8.94, 8.03, 6.7, 5.8, 8.18, 9.44, 8.85, 10.91, 10.62, 11.2, 10.75, 9.73, 9.27, 10.75, 9.17, 10.65, 11.09, 11.97, 11.97, 11.34, 11.21, 10.09, 4.71, 1.15, 1.89, 3.8, 6.27, 8.68, 10.47, 12.63, 13.71, 14.44, 14.1, 14.6, 14.75, 15.2, 14.72, 14.28, 14.26, 14.68, 11.33, 9.39, 9.67, 11.17, 10.46, 9.14, 7.84, 7.21, 8.15, 9.48, 10.94, 11.02, 11.5, 11.62, 11.92, 11.99, 12.09, 11.52, 11.29, 10.52, 9.8, 13.25, 12.79, 12.56, 12.27, 11.64, 11.64, 12.65, 12.65, 12.56, 11.38, 10.73, 11.6, 10.55, 11.37, 11.53, 10.47, 11.17, 11.8, 11.8, 9.48, 9.17, 9.17, 7.69, 7.93, 7.93, 8.22, 6.64, 3.39, 6.6, 2.81, -0.0, -0.0, -0.0, 7.69, 9.66, 9.58, 9.6, 6.64, 8.22, 9.17, 7.78, 8.54, 8.22, 9.67, 9.97, 9.89, 9.77, 8.67, 9.16, 9.73, 9.97, 10.12, 10.22, 10.73, 10.94, 11.2, 10.88, 11.03, 6.97, 2.91, 3.0, 2.98, 3.9, 6.62, 8.93, 10.92, 13.1, 14.99, 13.88, 13.86, 13.86, 13.37, 13.94, 14.37, 13.94, 14.23, 13.59, 6.17, 7.63, 9.87, 11.45, 12.0, 11.05, 9.87, 9.12, 9.27, 10.48, 10.81, 10.96, 11.37, 11.27, 11.97, 11.88, 12.09, 12.29, 12.09, 11.09, 9.8, 13.15, 12.79, 12.56, 12.65, 12.27, 12.27, 12.65, 13.43, 13.02, 12.21, 11.8, 12.39, 12.39, 12.11, 12.79, 12.79, 13.99, 13.99, 14.3, 15.52, 15.59, 15.59, 13.26, 11.52, 11.8, 9.17, 6.17, 4.6, 5.8, 6.2, 9.17, 5.8, 8.53, 10.6, 10.96, 11.21, 9.3, 8.22, 8.53, 9.13, 9.42, 9.48, 8.75, 9.46, 9.7, 8.93, 7.9, 6.86, 8.02, 8.67, 8.99, 9.94, 10.05, 9.39, 8.99, 9.62, 9.12, 7.44, -0.0, -0.0, 3.05, 4.79, 5.36, 6.45, 9.17, 12.17, 13.07, 12.97, 14.65, 10.12, 11.2, 12.66, 13.96, 13.07, 12.98, 13.59, 5.81, 6.66, 8.05, 10.18, 10.89, 11.9, 11.29, 10.92, 10.43, 9.97, 10.56, 10.8, 10.85, 10.6, 11.34, 11.72, 11.53, 11.72, 12.45, 12.07, 11.29, 9.31, 13.15, 12.62, 12.56, 12.65, 12.27, 12.27, 13.19, 13.43, 13.02, 12.21, 12.21, 12.39, 13.19, 12.79, 12.25, 11.44, 11.44, 13.48, 15.41, 16.27, 15.84, 15.41, 14.84, 14.94, 12.45, 11.6, 10.01, 6.18, 8.94, 9.75, 10.18, 11.03, 11.03, 9.83, 10.73, 9.75, 8.93, 9.82, 8.15, 8.83, 9.13, 10.09, 9.08, 9.09, 8.55, 6.11, 5.54, 5.77, 5.99, 5.99, 6.36, 7.89, 8.47, 7.52, 6.94, 7.23, 8.11, 8.43, -0.0, -1.58, 2.16, 5.52, 6.72, 7.0, 7.78, 10.26, 12.4, 12.82, 9.32, -0.0, -5.81, 4.52, 12.71, 12.71, 12.96, 5.46, 4.95, 7.84, 10.05, 11.06, 11.16, 11.52, 11.38, 11.06, 9.8, 10.03, 9.81, 10.58, 10.6, 10.92, 11.34, 10.99, 10.94, 11.5, 12.17, 12.56, 11.09, 9.8, 13.15, 12.62, 12.79, 12.27, 12.27, 12.9, 13.19, 13.02, 13.44, 13.02, 12.87, 12.79, 13.19, 13.59, 13.99, 13.59, 13.28, 12.45, 12.42, 12.94, 12.94, 12.6, 12.6, 12.94, 12.6, 12.45, 12.25, 11.99, 11.3, 9.74, 10.52, 10.4, 10.4, 10.0, 9.55, 8.43, 8.55, 7.9, 7.56, 7.85, 8.85, 8.85, 9.16, 7.81, 6.95, 4.4, 3.77, 4.24, 4.75, 4.58, 5.2, 5.6, 4.87, 4.95, 6.1, 6.71, 9.24, 10.33, 6.16, -0.0, 1.0, 5.65, 7.0, 6.4, 5.96, 7.11, 9.0, 10.71, 11.03, 11.5, -0.0, -14.88, 0.0, 5.6, 5.28, 6.36, 7.8, 9.92, 11.19, 11.7, 11.17, 11.68, 11.6, 12.0, 10.54, 11.07, 12.27, 11.62, 10.38, 10.38, 10.4, 10.2, 10.18, 11.5, 12.62, 11.88, 11.09, 9.13, 13.15, 12.62, 12.39, 12.5, 12.9, 12.79, 12.79, 13.44, 13.44, 13.44, 13.28, 13.28, 13.7, 13.59, 14.39, 14.39, 14.94, 14.11, 14.23, 13.8, 13.57, 13.2, 13.62, 14.44, 14.44, 13.99, 12.5, 12.79, 12.39, 11.26, 8.93, 7.26, 9.66, 8.38, 8.03, 6.95, 6.01, 5.98, 6.58, 6.87, 8.22, 8.49, 8.73, 7.9, 5.46, 3.87, 3.99, 4.4, 4.4, 4.58, 4.4, 4.58, 3.68, 5.46, 6.43, 6.92, 9.6, 12.64, 9.22, 1.98, 0.92, 5.04, 6.1, 5.19, 4.53, 4.19, 4.7, 5.63, 10.2, 15.17, 14.13, 11.7, -13.99, -0.0, 4.81, 8.2, 9.43, 11.45, 13.07, 12.84, 11.26, 11.39, 12.23, 12.79, 11.18, 11.39, 12.07, 12.11, 10.16, 9.67, 9.58, 9.97, 10.99, 12.21, 12.1, 11.77, 10.94, 9.42, 13.15, 13.02, 12.39, 12.79, 12.5, 12.79, 13.28, 13.44, 13.44, 13.44, 13.28, 13.7, 13.7, 14.11, 14.94, 15.36, 15.54, 15.96, 15.53, 14.84, 14.03, 14.03, 14.21, 14.39, 14.13, 13.55, 12.7, 12.52, 11.54, 9.6, 8.31, 6.94, 7.54, 7.59, 7.27, 6.14, 5.7, 5.46, 6.98, 7.9, 7.59, 8.22, 7.59, 7.59, 5.21, 5.46, 3.87, 4.05, 4.23, 4.8, 5.95, 4.6, 5.06, 5.1, 5.36, 5.63, 7.27, 10.12, 10.05, 5.31, 2.53, 4.48, 4.81, 3.53, 4.74, 3.47, 3.62, 6.36, 9.74, 14.22, 16.61, 15.5, 8.85, -0.0, 4.73, 9.67, 11.93, 13.1, 13.88, 14.24, 13.02, 12.39, 11.62, 11.79, 11.54, 12.58, 11.69, 10.59, 9.69, 9.69, 10.41, 10.35, 11.38, 11.77, 12.38, 11.09, 9.42, 9.42, 13.44, 13.02, 12.87, 13.28, 13.28, 13.28, 13.28, 13.44, 13.44, 13.8, 14.13, 14.13, 14.13, 14.11, 14.7, 15.12, 15.96, 16.48, 16.48, 15.69, 14.86, 14.61, 14.39, 14.29, 13.38, 12.92, 10.99, 9.88, 8.68, 7.82, 7.28, 8.16, 7.44, 7.26, 6.42, 5.2, 5.72, 5.72, 6.98, 7.59, 7.27, 7.59, 7.59, 6.3, 6.3, 5.46, 5.46, 4.4, 5.7, 6.14, 6.42, 7.27, 7.68, 7.15, 6.01, 6.01, 5.36, 7.44, 8.05, 7.78, 5.98, 5.92, 5.0, 4.54, 3.53, 3.47, 4.49, 6.73, 9.49, 13.91, 15.88, 15.75, 12.56, 2.72, 5.71, 10.84, 13.76, 14.3, 14.64, 14.42, 14.03, 14.39, 13.62, 12.18, 11.13, 11.03, 11.88, 10.36, 10.63, 10.63, 11.35, 11.39, 12.18, 12.38, 11.38, 10.18, 9.8, 9.8, 13.37, 13.02, 13.28, 12.87, 12.87, 13.28, 13.7, 14.23, 13.8, 13.8, 14.23, 14.13, 14.56, 14.56, 15.09, 15.09, 15.18, 16.05, 16.48, 16.12, 15.44, 15.02, 13.9, 13.01, 11.96, 11.38, 10.05, 8.64, 8.11, 7.4, 7.6, 7.6, 7.2, 7.1, 4.74, 4.74, 4.66, 5.52, 7.27, 7.27, 6.7, 6.32, 6.95, 6.32, 7.27, 7.27, 6.42, 6.42, 6.42, 7.68, 7.68, 8.4, 8.4, 7.81, 7.33, 6.64, 6.95, 8.23, 10.0, 10.48, 9.82, 7.9, 6.3, 5.46, 3.87, 2.7, 3.92, 5.6, 8.72, 14.55, 18.4, 16.45, 12.63, 5.0, 8.27, 12.13, 14.57, 15.25, 15.8, 14.99, 13.97, 13.02, 12.65, 12.39, 10.99, 10.01, 10.01, 10.69, 11.42, 12.45, 11.99, 11.55, 11.97, 12.62, 11.09, 9.17, 9.48, 9.48, 13.37, 13.37, 13.44, 13.28, 12.87, 13.27, 13.8, 13.8, 14.23, 14.23, 14.23, 14.66, 14.95, 14.95, 14.66, 14.66, 15.18, 15.61, 16.12, 15.81, 15.02, 14.86, 13.2, 11.3, 10.47, 10.69, 8.88, 8.33, 7.84, 7.8, 6.87, 7.49, 8.0, 8.64, 7.36, 5.63, 5.2, 6.42, 7.59, 7.27, 6.95, 6.95, 6.95, 6.95, 7.27, 7.27, 7.27, 7.27, 7.68, 7.68, 8.8, 8.8, 8.8, 8.18, 7.68, 6.95, 7.87, 9.2, 10.0, 9.97, 9.3, 8.24, 6.58, 5.46, 4.2, 2.28, 3.25, 5.2, 7.56, 13.2, 18.42, 17.76, 15.82, 10.52, 11.7, 13.59, 15.58, 16.02, 16.59, 14.59, 13.78, 13.95, 13.8, 10.36, 10.09, 9.17, 10.09, 10.82, 11.93, 13.51, 13.51, 12.62, 12.04, 11.53, 9.8, 9.8, 9.17, 9.17, 13.37, 13.37, 13.37, 13.44, 13.02, 13.37, 13.8, 13.8, 14.23, 14.23, 14.31, 14.99, 15.43, 15.39, 14.66, 16.58, 14.31, 15.18, 14.95, 14.53, 14.84, 14.13, 12.22, 11.7, 10.75, 10.33, 7.44, 8.74, 8.35, 7.2, 7.8, 8.48, 9.01, 8.78, 8.68, 7.36, 6.14, 6.64, 7.47, 8.73, 8.37, 8.93, 8.82, 8.18, 8.55, 8.55, 7.68, 7.68, 7.68, 8.18, 8.8, 8.8, 8.8, 8.18, 7.68, 8.03, 6.95, 7.59, 8.22, 9.08, 9.3, 8.24, 7.27, 5.2, 4.2, 3.61, 4.18, 6.98, 8.99, 12.71, 15.68, 17.02, 19.75, 18.24, 17.11, 16.35, 16.05, 16.43, 16.97, 16.74, 14.65, 15.36, 13.29, 10.99, 10.94, 10.79, 12.5, 13.43, 13.59, 13.97, 15.02, 14.44, 12.39, 10.18, 9.71, 9.8, 10.02, 10.02, 13.67, 13.37, 13.37, 13.37, 13.02, 13.37, 13.8, 13.8, 14.31, 14.31, 14.31, 15.02, 15.43, 15.43, 15.43, 14.99, 14.31, 14.31, 14.99, 14.56, 16.12, 14.13, 13.01, 13.95, 12.45, 11.7, 10.15, 8.43, 8.43, 8.43, 7.8, 8.27, 8.78, 8.78, 9.12, 8.94, 8.21, 7.78, 7.64, 6.87, 7.54, 8.11, 8.11, 8.11, 7.54, 9.3, 8.03, 8.03, 7.68, 8.4, 8.4, 7.81, 7.81, 7.68, 6.87, 6.64, 6.7, 6.3, 7.59, 9.08, 8.03, 7.27, 6.95, 5.46, 3.81, 3.99, 5.45, 8.58, 10.92, 12.83, 14.97, 16.62, 22.49, 23.21, 18.74, 16.33, 14.61, 14.61, 15.61, 14.95, 14.19, 14.84, 14.13, 12.45, 11.8, 11.97, 13.15, 13.67, 13.99, 14.1, 14.84, 14.86, 12.27, 10.12, 10.12, 10.97, 11.57, 11.57, 13.67, 13.37, 13.37, 13.37, 13.37, 13.37, 13.37, 13.88, 14.31, 14.81, 14.58, 15.02, 15.46, 15.46, 15.46, 15.46, 14.58, 14.58, 12.81, 14.9, 16.27, 14.79, 14.29, 13.39, 14.13, 13.59, 11.38, 9.67, 9.14, 9.37, 8.48, 8.78, 8.78, 8.78, 8.56, 9.73, 9.34, 9.17, 8.64, 7.96, 7.59, 8.18, 8.18, 8.18, 7.59, 8.93, 7.68, 7.68, 8.82, 8.8, 8.0, 7.33, 7.33, 6.95, 7.27, 7.56, 7.27, 7.27, 8.38, 8.03, 8.03, 7.68, 6.14, 4.6, 3.99, 5.69, 8.53, 9.17, 10.99, 12.1, 14.08, 16.62, 21.46, 18.89, 16.53, 14.47, 12.57, 13.92, 15.78, 15.61, 15.2, 14.79, 14.03, 13.44, 12.6, 12.85, 14.23, 14.75, 14.99, 14.11, 14.23, 13.84, 12.65, 11.07, 10.73, 10.99, 12.03, 12.03, 13.67, 13.63, 13.37, 13.37, 13.37, 13.44, 13.44, 13.88, 14.37, 14.81, 14.86, 14.86, 15.05, 15.49, 15.46, 15.46, 15.02, 14.6, 14.6, 16.17, 16.33, 15.58, 14.61, 14.17, 14.47, 14.3, 12.85, 10.08, 8.94, 8.9, 9.14, 8.27, 8.78, 8.78, 8.56, 9.99, 9.91, 9.8, 8.85, 8.65, 7.96, 8.18, 7.81, 8.18, 8.32, 7.68, 8.93, 8.43, 8.05, 7.33, 6.98, 7.33, 6.95, 6.95, 6.95, 7.27, 7.59, 7.9, 9.2, 7.87, 6.98, 7.9, 5.98, 5.45, 5.69, 7.24, 8.85, 8.75, 7.72, 8.83, 11.03, 15.36, 17.27, 3.31, 5.4, 10.99, 13.58, 14.91, 17.33, 15.43, 15.69, 15.83, 14.74, 14.6, 14.28, 13.7, 14.4, 15.71, 14.99, 14.03, 13.07, 12.09, 12.16, 11.69, 11.39, 11.39, 12.6, 12.6, 13.67, 13.67, 13.67, 13.37, 13.44, 13.44, 13.88, 13.94, 14.37, 14.86, 14.86, 14.86, 15.3, 15.3, 15.49, 15.49, 15.05, 14.6, 14.86, 16.17, 16.33, 15.16, 13.8, 13.38, 13.76, 13.95, 13.18, 11.26, 9.19, 7.98, 8.21, 8.67, 7.84, 7.84, 8.33, 9.73, 10.19, 10.43, 9.64, 9.0, 8.3, 8.32, 8.18, 7.59, 7.61, 7.61, 9.67, 8.05, 7.67, 7.33, 7.33, 7.68, 6.95, 6.95, 7.27, 7.59, 7.9, 7.65, 8.73, 8.0, 7.81, 5.7, 5.92, 5.43, 6.97, 8.24, 9.17, 7.27, 6.2, 6.67, 8.31, 13.28, 21.2, -13.59, -7.9, 12.27, 14.3, 16.44, 17.35, 17.43, 15.17, 15.38, 15.23, 15.98, 15.68, 14.56, 13.99, 13.89, 14.39, 13.68, 11.75, 10.73, 11.34, 11.9, 11.28, 11.64, 11.75, 11.75, 13.81, 13.81, 13.67, 13.67, 13.44, 13.5, 13.5, 13.94, 14.42, 14.61, 14.61, 15.04, 15.12, 15.12, 15.34, 15.49, 15.49, 14.42, 15.3, 15.55, 15.69, 15.61, 14.39, 12.56, 12.65, 13.23, 13.39, 11.78, 9.43, 8.43, 7.98, 7.98, 8.43, 8.43, 8.93, 9.47, 10.77, 10.75, 9.97, 9.0, 8.32, 7.95, 8.32, 8.32, 6.92, 6.98, 8.93, 8.18, 8.18, 8.18, 7.9, 8.18, 8.18, 6.98, 7.68, 7.27, 7.27, 7.9, 9.3, 8.93, 4.71, 2.83, 5.0, 7.24, 7.95, 9.13, 7.78, 7.54, 5.69, 6.69, 8.72, 19.81, 22.27, 21.49, 17.19, 16.33, 16.03, 13.86, 14.66, 15.18, 15.47, 14.21, 14.75, 15.65, 15.46, 14.66, 13.7, 13.59, 13.42, 12.57, 11.44, 10.85, 11.12, 11.99, 11.88, 12.04, 11.87, 11.87, 13.81, 13.81, 13.67, 13.67, 13.67, 13.5, 13.5, 13.99, 14.42, 14.61, 14.61, 14.61, 15.12, 15.12, 15.18, 15.34, 15.3, 14.86, 14.61, 15.16, 14.94, 15.39, 14.75, 14.09, 12.52, 12.52, 12.57, 11.16, 9.92, 8.43, 8.43, 8.21, 8.2, 8.68, 8.93, 10.19, 10.77, 11.63, 10.63, 8.97, 8.32, 7.95, 7.68, 8.03, 7.68, 7.59, 7.54, 7.72, 7.54, 7.92, 7.54, 8.93, 8.0, 7.67, 6.98, 6.95, 7.27, 6.87, 8.03, 6.95, 5.9, 3.8, 5.7, 7.56, 7.95, 7.69, 6.94, 7.68, 8.22, 10.04, 11.14, 15.27, 20.25, 21.74, 19.68, 19.65, 19.09, 16.82, 13.48, 9.89, 12.27, 13.59, 14.69, 15.17, 15.02, 13.62, 12.56, 12.27, 12.09, 11.68, 13.23, 11.8, 11.75, 12.45, 11.72, 11.87, 11.61, 11.61, 13.82, 13.82, 13.81, 13.67, 13.7, 13.7, 13.5, 13.99, 14.42, 14.18, 14.61, 14.61, 15.12, 15.18, 15.18, 15.18, 15.34, 15.3, 15.04, 14.73, 14.38, 14.39, 14.75, 13.97, 13.23, 12.36, 10.83, 10.19, 9.14, 8.65, 8.43, 8.9, 8.67, 9.92, 10.19, 10.19, 10.77, 11.38, 11.63, 9.97, 8.65, 8.03, 7.68, 7.31, 8.03, 8.32, 8.49, 7.72, 7.54, 7.92, 8.11, 8.24, 8.18, 8.18, 7.68, 7.68, 8.43, 7.15, 6.64, 6.42, 6.58, 6.42, 6.64, 6.87, 6.16, 6.94, 6.7, 7.68, 8.93, 9.55, 10.41, 13.37, 15.35, 17.85, 21.23, 18.42, 18.79, 18.29, 9.66, 3.04, 7.11, 12.16, 14.42, 14.23, 12.95, 13.51, 12.99, 12.07, 11.35, 11.39, 12.79, 12.65, 12.7, 12.14, 11.45, 11.54, 11.18, 11.18, 13.82, 13.82, 13.82, 13.82, 13.7, 13.7, 13.72, 13.72, 13.99, 14.42, 14.61, 14.61, 15.12, 14.75, 15.18, 15.18, 15.18, 15.04, 15.04, 14.73, 14.38, 13.99, 13.97, 13.6, 13.6, 12.24, 10.83, 9.92, 8.9, 8.43, 8.9, 9.42, 10.19, 10.76, 10.47, 10.47, 10.47, 11.13, 11.7, 11.06, 10.3, 8.97, 7.97, 7.68, 8.32, 8.32, 8.88, 7.92, 7.54, 7.54, 8.24, 8.63, 8.8, 8.3, 7.87, 7.64, 8.43, 7.67, 6.28, 5.72, 8.24, 7.4, 7.9, 5.45, 5.99, 5.21, 6.97, 8.94, 9.97, 10.8, 11.27, 11.61, 13.39, 14.78, 15.0, 17.46, 16.41, 15.79, 13.97, -2.54, -1.77, 6.6, 14.3, 11.99, 12.07, 13.2, 14.2, 13.2, 12.74, 12.2, 12.56, 14.05, 14.33, 13.15, 12.3, 11.45, 11.18, 11.18, 13.86, 13.86, 13.82, 13.82, 13.7, 13.72, 13.72, 13.72, 13.99, 13.67, 14.18, 14.61, 14.69, 14.75, 14.75, 14.79, 15.18, 15.12, 15.04, 14.6, 14.21, 13.78, 13.33, 12.86, 13.23, 11.91, 10.83, 8.93, 8.67, 8.67, 9.17, 9.17, 9.99, 9.99, 10.76, 10.47, 10.47, 11.43, 12.01, 11.38, 10.97, 10.03, 8.31, 7.68, 8.67, 8.3, 8.88, 8.49, 8.24, 8.24, 8.24, 8.63, 8.67, 8.32, 8.68, 7.87, 7.81, 7.67, 6.01, 6.32, 7.87, 8.12, 6.77, 6.2, 5.43, 7.73, 9.48, 9.2, 10.18, 11.87, 13.32, 12.83, 12.35, 12.45, 12.46, 14.66, 18.74, 17.36, 17.58, 17.13, 3.36, 12.79, 14.95, 12.79, 12.74, 13.39, 13.75, 13.99, 14.18, 13.15, 13.05, 13.99, 15.18, 13.91, 12.98, 12.37, 12.09, 12.09, 13.86, 13.86, 13.82, 13.82, 13.72, 13.72, 13.72, 14.16, 13.99, 13.94, 14.18, 14.61, 15.12, 15.18, 15.18, 14.79, 14.75, 14.69, 14.61, 14.53, 14.6, 14.21, 13.78, 13.33, 12.86, 12.52, 11.06, 9.66, 8.33, 9.17, 9.17, 9.73, 9.73, 9.73, 9.73, 10.47, 10.47, 12.01, 12.01, 12.29, 11.63, 10.38, 9.08, 7.87, 7.51, 8.3, 9.42, 10.2, 10.2, 8.24, 8.63, 8.3, 7.95, 8.32, 8.93, 8.68, 9.32, 8.55, 6.64, 7.13, 7.51, 7.4, 6.48, 6.2, 6.71, 9.08, 9.67, 9.63, 9.83, 11.18, 12.93, 13.55, 12.35, 12.96, 14.3, 16.49, 18.01, 17.16, 18.05, 19.42, 17.78, 14.47, 14.33, 13.92, 14.33, 13.57, 13.57, 14.58, 15.01, 14.75, 13.82, 14.25, 14.4, 14.84, 14.58, 13.49, 12.53, 12.53, 13.86, 13.86, 13.82, 13.82, 13.72, 13.72, 13.55, 13.99, 13.99, 13.67, 13.99, 14.86, 14.69, 15.18, 15.61, 15.18, 14.51, 14.75, 14.61, 14.61, 14.6, 14.21, 14.21, 14.21, 13.78, 12.86, 10.75, 9.39, 8.11, 8.93, 9.47, 9.47, 9.47, 9.47, 9.73, 10.47, 11.06, 11.06, 12.63, 12.63, 12.57, 11.57, 9.77, 7.68, 6.51, 7.87, 10.24, 11.31, 11.31, 10.12, 9.04, 7.59, 7.95, 7.95, 8.55, 8.93, 8.93, 8.68, 8.58, 7.47, 7.15, 7.06, 6.77, 6.77, 7.27, 7.59, 8.35, 10.48, 9.29, 9.74, 11.09, 11.2, 13.19, 16.27, 12.02, 15.99, 17.43, 15.93, 17.15, 19.0, 18.73, 17.59, 15.73, 15.44, 15.85, 16.19, 15.22, 15.03, 15.12, 15.03, 14.13, 14.65, 14.57, 15.23, 15.27, 14.4, 13.62, 13.62, 13.38, 13.38, 13.82, 13.72, 13.72, 13.55, 13.55, 13.99, 13.99, 14.37, 14.42, 13.99, 14.69, 14.69, 15.18, 15.18, 14.93, 14.93, 14.84, 14.73, 14.6, 14.6, 14.6, 14.38, 13.99, 12.86, 11.2, 8.85, 8.16, 8.4, 9.47, 8.68, 9.2, 9.2, 10.19, 10.77, 11.06, 11.7, 12.29, 13.26, 12.92, 12.29, 10.12, 8.38, 7.54, 8.72, 11.33, 12.07, 11.57, 10.85, 9.4, 7.59, 7.59, 7.59, 7.95, 8.32, 8.68, 9.04, 8.68, 8.58, 7.51, 7.51, 7.74, 7.81, 6.64, 6.64, 6.95, 8.82, 9.3, 9.2, 7.87, 8.94, 12.65, 16.96, 20.03, 12.96, 16.85, 15.2, 15.16, 18.55, 20.53, 19.31, 15.96, 15.99, 17.76, 19.14, 18.28, 15.96, 14.73, 14.29, 13.84, 14.28, 14.29, 14.67, 15.03, 15.01, 14.09, 14.09, 13.38, 13.38, 13.28, 13.72, 13.72, 13.55, 13.55, 13.99, 13.94, 14.42, 14.42, 14.42, 14.42, 15.12, 15.12, 15.18, 14.93, 15.36, 15.36, 14.94, 14.94, 14.79, 14.38, 14.38, 13.58, 12.4, 10.75, 8.58, 8.93, 7.92, 9.2, 8.93, 9.47, 9.91, 9.91, 10.77, 10.77, 11.7, 12.29, 12.92, 12.92, 12.22, 11.35, 9.16, 8.67, 9.81, 11.2, 12.74, 11.97, 10.56, 8.67, 7.54, 7.54, 7.54, 7.69, 7.95, 8.67, 9.05, 9.05, 9.43, 8.58, 7.51, 7.28, 6.79, 6.87, 7.07, 7.33, 8.03, 9.46, 9.32, 8.0, 9.63, 11.87, 15.9, 20.16, 20.78, 14.18, 13.41, 14.71, 16.0, 18.26, 17.72, 16.07, 15.77, 17.93, 19.95, 19.65, 17.18, 15.18, 13.41, 12.96, 13.41, 13.83, 14.22, 14.67, 14.57, 14.11, 14.11, 13.38, 13.38, 13.28, 13.72, 13.72, 13.72, 13.55, 13.99, 13.99, 14.6, 14.6, 14.42, 14.42, 14.42, 15.12, 15.12, 14.93, 14.65, 14.33, 14.74, 14.58, 14.58, 14.39, 13.58, 12.5, 12.05, 10.75, 9.16, 7.69, 8.68, 8.18, 8.68, 10.19, 10.19, 10.19, 10.19, 10.77, 11.7, 12.29, 12.92, 12.92, 12.57, 11.72, 10.18, 9.05, 10.2, 11.38, 12.17, 11.69, 9.81, 7.92, 7.54, 7.54, 7.32, 7.69, 8.06, 8.06, 8.67, 9.05, 9.43, 9.05, 7.28, 7.33, 6.18, 6.91, 8.18, 8.8, 8.0, 8.8, 9.6, 9.36, 10.68, 11.62, 14.3, 18.85, 25.38, 18.78, 14.19, 14.62, 16.0, 16.69, 16.05, 15.56, 16.22, 16.7, 18.08, 18.52, 17.16, 15.55, 13.82, 13.36, 13.28, 13.62, 14.09, 14.0, 14.53, 13.96, 13.96, 13.28, 13.28, 13.28, 13.28, 13.72, 13.72, 13.7, 14.14, 14.16, 14.6, 14.6, 14.81, 14.42, 14.42, 14.69, 15.12, 14.84, 14.53, 14.33, 14.39, 14.2, 14.59, 13.97, 13.54, 12.05, 11.68, 10.75, 9.92, 8.18, 8.18, 8.85, 9.12, 9.91, 9.91, 10.19, 10.77, 11.38, 11.38, 12.29, 12.92, 12.92, 13.55, 12.45, 10.94, 10.2, 10.2, 10.99, 12.17, 12.17, 10.6, 8.43, 8.05, 7.69, 7.69, 8.06, 8.06, 8.42, 8.32, 8.67, 9.05, 9.67, 7.68, 6.98, 7.33, 6.52, 7.56, 8.24, 8.54, 8.91, 9.45, 10.17, 11.28, 12.07, 13.38, 17.61, 22.31, 20.55, 18.68, 16.06, 15.57, 15.93, 15.47, 16.45, 16.89, 16.89, 17.32, 17.6, 16.26, 15.71, 14.55, 13.53, 13.67, 13.15, 13.65, 14.11, 14.44, 13.96, 13.96, 13.28, 13.28, 13.28, 13.28, 13.72, 13.7, 13.7, 14.14, 14.6, 14.6, 15.02, 14.81, 14.81, 14.42, 14.18, 14.42, 14.42, 14.11, 13.77, 13.81, 14.03, 13.8, 13.54, 13.54, 12.4, 11.68, 10.75, 9.34, 8.18, 9.12, 9.12, 9.62, 9.62, 9.62, 10.47, 11.06, 11.38, 11.96, 12.29, 12.92, 13.55, 13.18, 12.82, 11.77, 10.6, 10.2, 10.99, 11.77, 11.77, 11.12, 9.2, 8.82, 8.06, 8.06, 7.68, 7.68, 8.03, 8.32, 8.32, 9.4, 9.52, 9.67, 7.33, 7.33, 7.68, 8.82, 8.15, 8.4, 8.48, 9.92, 10.43, 11.44, 12.3, 13.37, 15.46, 16.24, 18.67, 19.17, 19.5, 17.4, 15.12, 15.99, 16.44, 16.43, 15.99, 15.87, 15.8, 16.19, 15.34, 14.99, 13.96, 13.77, 13.82, 13.39, 13.84, 13.84, 14.13, 14.13, 13.28, 13.28, 13.28, 13.28, 13.72, 13.7, 14.14, 14.14, 14.58, 14.58, 15.02, 14.81, 14.81, 14.37, 14.18, 14.61, 14.42, 14.11, 13.77, 13.81, 13.42, 13.39, 13.1, 13.1, 12.4, 11.2, 10.75, 9.92, 9.34, 9.62, 9.62, 9.62, 9.34, 9.87, 9.87, 11.3, 11.63, 12.22, 12.57, 13.18, 13.18, 14.13, 13.42, 11.5, 10.35, 10.2, 10.6, 11.38, 11.77, 11.12, 9.97, 8.42, 7.76, 7.35, 7.68, 7.68, 8.32, 8.32, 8.32, 9.81, 10.18, 9.16, 8.55, 7.28, 8.15, 9.2, 7.81, 8.24, 8.87, 9.16, 10.46, 10.0, 12.62, 13.39, 14.55, 14.7, 15.35, 17.82, 20.3, 22.41, 18.65, 15.18, 14.31, 13.92, 14.15, 15.13, 16.0, 16.31, 15.95, 15.15, 14.75, 14.3, 13.86, 13.86, 13.86, 13.86, 13.84, 13.84, 12.93, 12.93, 13.38, 13.28, 13.7, 13.7, 14.26, 14.14, 14.58, 14.58, 14.75, 14.81, 14.81, 14.81, 14.18, 13.99, 14.11, 14.11, 13.59, 13.58, 13.42, 13.02, 12.98, 12.65, 11.94, 11.2, 10.75, 9.92, 9.34, 10.17, 10.17, 10.17, 9.87, 10.43, 10.97, 10.97, 11.52, 12.45, 12.82, 13.8, 13.8, 13.8, 13.03, 11.6, 9.2, 9.6, 10.58, 11.39, 11.12, 11.12, 9.53, 8.82, 7.68, 7.68, 7.68, 7.68, 8.32, 8.32, 9.05, 9.43, 10.18, 9.89, 8.55, 8.54, 8.15, 9.33, 7.74, 8.17, 8.6, 8.79, 8.99, 9.81, 12.17, 14.86, 16.54, 14.66, 14.51, 16.85, 19.95, 21.63, 18.79, 14.81, 14.79, 15.24, 15.1, 16.33, 17.0, 16.66, 16.43, 15.65, 14.75, 14.66, 14.23, 14.26, 14.16, 12.86, 12.87, 13.41, 12.93, 12.93, 13.38, 13.38, 13.82, 13.82, 14.26, 14.14, 14.55, 14.55, 14.99, 14.99, 14.75, 14.53, 14.31, 13.7, 13.7, 13.92, 13.77, 13.99, 13.58, 12.73, 12.3, 12.65, 11.94, 11.2, 10.43, 9.92, 10.43, 9.87, 10.75, 10.43, 10.43, 10.97, 11.52, 11.52, 11.72, 12.45, 12.45, 13.42, 13.42, 13.8, 12.65, 10.8, 8.43, 9.6, 10.58, 11.39, 11.5, 11.12, 9.88, 9.17, 8.02, 7.68, 7.68, 8.06, 8.67, 8.67, 9.43, 9.43, 10.18, 9.89, 9.3, 8.54, 8.22, 8.48, 8.48, 7.76, 8.54, 8.0, 8.23, 9.46, 11.99, 14.71, 17.92, 19.59, 13.15, 16.03, 19.05, 18.67, 15.25, 14.81, 15.99, 16.44, 16.8, 17.11, 17.78, 17.87, 17.22, 16.07, 15.2, 14.66, 14.31, 14.11, 12.39, 12.3, 12.14, 12.87, 12.93, 12.93, 12.93, 13.38, 13.82, 13.82, 14.26, 14.11, 14.55, 14.55, 14.99, 14.99, 14.75, 14.53, 14.31, 13.7, 13.37, 13.52, 13.77, 13.59, 13.33, 12.86, 12.73, 12.3, 11.94, 11.6, 10.87, 10.43, 10.58, 10.63, 10.97, 11.03, 11.03, 11.52, 11.17, 11.52, 11.72, 11.72, 12.45, 12.45, 13.42, 13.42, 12.65, 10.35, 9.6, 10.35, 12.39, 12.27, 12.27, 11.35, 10.23, 9.53, 8.47, 8.42, 8.06, 8.06, 8.67, 9.05, 9.43, 9.43, 10.18, 9.89, 8.05, 8.8, 8.05, 8.05, 7.07, 7.76, 8.0, 8.72, 8.72, 8.99, 11.03, 12.95, 15.35, 19.48, 22.13, 15.01, 16.99, 13.42, 13.33, 14.97, 16.71, 16.8, 17.11, 17.59, 18.26, 18.35, 17.7, 16.44, 15.2, 15.14, 13.96, 12.08, 12.2, 11.61, 11.45, 12.14, 12.93, 12.93, 12.93, 13.38, 13.38, 13.82, 13.67, 14.11, 14.11, 14.58, 14.55, 14.31, 14.53, 14.53, 13.89, 13.56, 13.37, 13.52, 13.19, 13.2, 12.94, 12.65, 12.5, 12.4, 11.94, 11.94, 10.87, 10.54, 10.58, 10.58, 10.63, 11.03, 11.52, 11.52, 11.17, 11.17, 11.17, 10.82, 11.72, 12.09, 12.09, 13.03, 12.79, 11.2, 10.4, 11.6, 13.34, 13.42, 12.09, 11.72, 10.94, 9.88, 8.47, 8.06, 8.06, 8.06, 8.42, 9.05, 9.05, 9.81, 10.6, 10.35, 11.2, 8.43, 8.05, 8.05, 7.6, 8.05, 7.76, 8.34, 8.72, 8.99, 10.05, 11.03, 13.34, 15.99, 19.69, 26.02, 24.72, 16.37, 13.8, 15.76, 18.66, 17.89, 16.87, 17.47, 18.06, 18.16, 17.36, 16.52, 15.2, 14.26, 12.27, 11.76, 11.55, 11.27, 11.27, 11.27, 12.48, 12.48, 12.93, 12.93, 13.38, 13.25, 13.67, 14.11, 13.94, 13.94, 14.1, 13.77, 13.77, 13.77, 13.89, 13.56, 13.7, 13.37, 13.02, 12.65, 13.2, 12.94, 12.16, 11.68, 11.68, 11.2, 10.87, 10.54, 10.54, 10.25, 10.73, 10.3, 11.17, 11.17, 11.17, 10.82, 10.82, 10.47, 11.35, 11.72, 12.27, 12.27, 12.39, 11.2, 10.8, 12.21, 13.43, 13.03, 11.72, 11.35, 10.59, 9.53, 8.06, 8.05, 8.43, 8.43, 9.42, 9.42, 9.81, 9.81, 10.2, 10.6, 10.4, 8.82, 8.43, 8.05, 8.05, 8.05, 7.44, 8.0, 8.34, 8.58, 10.05, 9.9, 11.16, 14.1, 16.55, 21.73, 23.44, 21.61, 21.04, 20.79, 20.69, 19.42, 16.68, 17.39, 17.26, 17.41, 16.54, 15.65, 14.75, 13.37, 12.08, 11.39, 10.8, 10.8, 10.8, 10.8, 12.52, 12.52, 12.96, 12.93, 13.37, 13.25, 13.67, 13.67, 13.44, 13.35, 12.99, 13.19, 13.19, 13.19, 13.19, 13.56, 13.56, 13.19, 13.37, 12.41, 12.79, 12.5, 12.16, 11.68, 11.68, 11.2, 10.87, 10.54, 10.65, 10.65, 10.38, 10.38, 10.47, 10.82, 11.17, 10.47, 10.47, 10.99, 10.99, 11.5, 11.88, 11.88, 11.99, 10.8, 10.79, 12.04, 12.79, 12.27, 11.16, 9.88, 9.53, 8.82, 8.05, 8.05, 8.43, 8.43, 9.2, 9.42, 9.81, 9.81, 10.2, 10.6, 10.35, 10.8, 8.82, 8.43, 8.05, 8.43, 7.21, 8.0, 8.4, 8.48, 9.13, 10.2, 10.43, 11.66, 14.88, 17.21, 19.11, 20.41, 21.83, 22.72, 24.2, 22.55, 18.73, 17.53, 17.57, 16.97, 15.65, 14.28, 13.37, 12.79, 11.34, 10.25, 9.89, 9.89, 9.89, 9.89, 12.52, 12.52, 12.96, 12.96, 13.37, 13.37, 13.81, 13.67, 13.88, 13.35, 12.6, 12.81, 12.41, 12.65, 13.02, 13.02, 13.02, 12.81, 12.81, 12.41, 12.5, 12.05, 11.68, 11.68, 11.68, 11.2, 10.87, 10.99, 10.65, 10.3, 10.73, 10.38, 10.85, 10.47, 10.47, 10.99, 10.62, 10.99, 11.5, 11.5, 11.5, 11.99, 11.6, 10.4, 10.0, 10.8, 11.99, 11.16, 11.16, 10.04, 9.3, 8.55, 7.67, 8.05, 8.43, 8.82, 8.82, 9.2, 9.58, 9.81, 10.17, 10.4, 10.8, 10.4, 10.8, 8.43, 8.05, 7.44, 7.64, 8.15, 9.33, 8.4, 8.99, 9.97, 10.18, 11.02, 12.62, 14.46, 15.38, 14.78, 18.63, 23.06, 24.84, 23.15, 19.76, 18.42, 18.21, 16.82, 14.75, 12.47, 12.58, 11.09, 10.87, 10.48, 10.41, 10.41, 10.41, 10.41, 12.52, 12.52, 12.96, 12.96, 12.96, 13.37, 13.37, 13.7, 13.57, 12.79, 12.18, 12.03, 12.41, 12.65, 12.65, 12.65, 12.65, 12.65, 12.41, 12.81, 11.8, 11.68, 11.68, 11.68, 11.68, 11.68, 11.33, 10.99, 10.65, 10.65, 10.73, 10.03, 10.48, 10.12, 10.62, 11.12, 11.12, 11.12, 11.99, 11.6, 11.6, 11.6, 11.6, 10.4, 10.0, 10.8, 11.6, 10.79, 10.79, 10.04, 9.3, 8.18, 7.67, 8.05, 8.43, 8.8, 9.2, 9.6, 10.0, 10.0, 10.0, 10.0, 10.8, 10.8, 9.77, 8.82, 8.05, 7.07, 8.15, 8.15, 8.4, 8.72, 8.58, 9.58, 10.6, 11.2, 12.33, 13.02, 13.02, 13.24, 15.95, 20.63, 23.43, 21.67, 20.61, 20.63, 18.02, 15.69, 12.94, 12.96, 12.14, 12.52, 12.07, 11.45, 11.6, 11.6, 11.6, 11.6, 12.52, 12.52, 12.96, 12.96, 13.38, 13.38, 13.25, 13.5, 12.93, 12.6, 12.18, 12.42, 12.41, 12.41, 12.41, 12.41, 12.41, 12.41, 12.41, 12.41, 11.8, 11.68, 11.68, 11.68, 11.68, 11.68, 11.33, 11.44, 11.09, 11.09, 10.73, 10.79, 10.48, 10.56, 10.99, 10.73, 11.2, 11.2, 11.6, 11.6, 11.6, 11.6, 11.6, 10.8, 10.0, 10.8, 11.2, 10.94, 10.94, 9.67, 8.93, 8.18, 7.44, 8.4, 8.8, 8.8, 9.2, 9.6, 10.0, 10.0, 9.6, 10.38, 10.79, 10.8, 10.16, 8.82, 8.0, 8.0, 8.43, 8.37, 8.0, 8.23, 8.93, 10.0, 10.58, 11.14, 11.77, 12.42, 12.41, 11.69, 14.06, 19.16, 21.55, 22.32, 22.18, 21.46, 17.73, 14.47, 12.63, 10.8, 8.85, 7.51, 7.24, 5.2, 5.8, 6.43, 6.43, 6.43, 12.52, 12.52, 12.96, 12.94, 12.94, 13.28, 13.72, 13.32, 12.58, 12.2, 12.18, 12.18, 12.42, 12.81, 12.41, 12.41, 12.41, 12.41, 12.41, 12.03, 11.76, 11.8, 11.68, 11.68, 12.16, 12.16, 11.8, 11.44, 11.09, 11.53, 11.16, 11.16, 11.2, 10.99, 10.99, 10.99, 10.35, 10.73, 10.73, 10.73, 11.2, 11.2, 11.2, 10.8, 10.0, 10.8, 11.2, 11.2, 10.55, 9.77, 9.38, 8.99, 8.21, 8.0, 8.4, 8.8, 9.2, 9.2, 9.6, 9.6, 9.96, 9.8, 10.62, 11.03, 10.16, 9.6, 8.05, 7.51, 7.87, 8.54, 9.2, 8.72, 9.6, 10.0, 10.58, 10.6, 11.2, 11.42, 11.76, 11.34, 12.05, 16.3, 18.15, 21.05, 23.17, 23.24, 18.54, 12.66, 10.25, 8.02, 7.85, 7.44, 6.45, 5.99, 6.87, 6.3, 6.3, 6.3, 12.52, 12.52, 12.96, 12.94, 12.94, 13.29, 13.55, 13.05, 12.58, 12.6, 12.6, 12.6, 12.56, 12.56, 12.81, 12.81, 12.81, 12.81, 12.41, 12.41, 12.13, 11.8, 12.16, 12.16, 12.16, 12.27, 12.27, 11.9, 11.53, 11.16, 11.58, 11.58, 11.6, 11.2, 10.99, 10.6, 10.35, 10.35, 10.35, 10.73, 10.73, 11.2, 11.2, 10.8, 10.4, 11.2, 11.6, 11.2, 10.16, 9.38, 8.99, 8.6, 8.6, 8.4, 8.4, 8.8, 8.8, 9.2, 9.2, 9.96, 9.96, 9.8, 10.21, 11.03, 10.16, 9.32, 8.0, 7.64, 8.54, 8.63, 9.54, 9.46, 9.4, 10.0, 9.97, 10.18, 10.81, 10.79, 11.09, 10.99, 10.65, 13.11, 15.77, 18.17, 23.58, 25.77, 13.78, 11.41, 9.48, 8.79, 8.53, 8.53, 7.28, 6.3, 7.11, 6.87, 6.87, 6.87, 12.52, 12.52, 12.94, 12.94, 12.86, 13.15, 13.39, 13.05, 12.58, 12.6, 12.6, 12.6, 12.99, 12.99, 12.99, 12.56, 12.81, 12.81, 12.81, 12.13, 12.13, 11.8, 12.65, 12.65, 12.27, 12.27, 12.27, 12.36, 11.97, 11.97, 11.58, 11.58, 11.6, 11.2, 10.56, 10.18, 9.89, 10.35, 10.35, 10.35, 10.35, 10.35, 10.35, 10.8, 10.8, 11.39, 12.18, 11.2, 10.16, 9.38, 8.99, 8.6, 8.6, 8.3, 8.72, 8.4, 8.8, 9.13, 9.13, 9.55, 9.55, 9.75, 10.18, 10.62, 11.03, 10.09, 8.37, 8.0, 9.2, 9.21, 9.04, 9.04, 9.03, 9.8, 9.58, 10.18, 10.56, 10.12, 10.85, 10.73, 10.73, 10.73, 12.36, 17.44, 25.39, 22.6, 15.35, 12.2, 9.92, 9.8, 10.18, 9.48, 7.89, 7.36, 7.44, 7.78, 7.78, 7.78, 12.52, 12.49, 12.5, 12.87, 12.86, 12.74, 12.96, 13.05, 12.58, 12.6, 12.6, 12.99, 12.99, 12.99, 12.99, 12.99, 12.99, 12.56, 12.56, 12.56, 12.56, 12.27, 12.27, 12.27, 12.74, 12.74, 12.74, 12.36, 11.97, 11.97, 11.58, 11.58, 11.2, 11.2, 10.99, 10.6, 10.35, 9.97, 9.97, 9.97, 10.35, 10.35, 10.35, 10.4, 10.99, 11.76, 11.8, 11.2, 10.55, 9.77, 8.99, 8.6, 8.99, 8.3, 8.72, 8.72, 8.72, 9.13, 9.13, 9.13, 9.55, 9.75, 10.18, 10.21, 11.21, 10.16, 9.32, 8.37, 8.72, 8.72, 8.72, 8.93, 8.18, 8.18, 9.38, 9.97, 10.18, 10.56, 10.56, 10.81, 10.79, 10.79, 11.53, 16.74, 29.07, 21.95, 16.91, 13.39, 9.88, 10.69, 10.43, 9.24, 8.41, 7.44, 8.23, 9.48, 9.48, 9.48, 12.5, 12.5, 12.43, 12.87, 12.74, 12.74, 12.96, 12.74, 12.58, 12.6, 12.6, 13.39, 13.39, 13.39, 12.99, 12.99, 12.99, 12.99, 12.99, 12.56, 12.27, 12.27, 12.74, 12.74, 12.74, 12.74, 12.36, 12.36, 12.39, 11.99, 11.99, 11.6, 11.6, 11.6, 10.99, 10.6, 10.35, 9.97, 9.97, 9.97, 9.97, 10.4, 10.4, 10.58, 10.92, 10.92, 10.8, 10.55, 10.55, 9.77, 9.38, 9.4, 8.99, 8.72, 8.3, 8.3, 8.72, 8.72, 8.72, 9.13, 9.13, 9.55, 9.55, 10.38, 10.4, 10.55, 10.48, 9.3, 8.37, 8.34, 8.34, 7.81, 8.15, 7.59, 8.37, 8.82, 9.52, 10.18, 10.2, 10.2, 10.18, 10.79, 12.6, 24.69, 29.33, 20.63, 17.22, 12.66, 8.1, 8.05, 8.68, 8.99, 8.68, 8.2, 9.8, 10.43, 10.43, 10.43, 12.5, 12.5, 12.43, 12.43, 12.74, 12.58, 12.72, 12.33, 12.74, 12.74, 13.15, 12.99, 13.39, 13.39, 13.39, 13.39, 13.39, 12.99, 12.99, 13.38, 12.74, 12.74, 12.74, 13.39, 13.19, 12.79, 12.79, 12.79, 12.39, 11.99, 11.99, 11.6, 11.6, 11.2, 10.99, 10.6, 10.35, 9.97, 9.97, 10.0, 10.4, 10.4, 10.58, 10.92, 10.5, 10.0, 10.4, 10.16, 10.16, 9.77, 9.38, 9.4, 9.13, 9.13, 8.72, 8.3, 8.3, 8.3, 8.72, 8.72, 8.72, 9.13, 9.55, 9.6, 10.0, 9.67, 10.55, 9.48, 8.93, 8.8, 8.54, 8.37, 8.15, 8.15, 8.49, 8.94, 8.82, 9.81, 9.81, 8.79, 9.16, 10.41, 20.0, 22.8, 28.51, 20.0, 16.79, 4.38, -0.0, 3.98, 6.99, 8.57, 9.92, 9.57, 10.69, 11.9, 11.9, 11.9, 12.5, 12.5, 12.43, 12.42, 12.3, 12.53, 12.72, 12.74, 12.74, 12.74, 12.74, 13.35, 13.39, 13.39, 13.39, 13.39, 13.39, 13.39, 13.39, 13.59, 13.13, 13.39, 13.39, 13.39, 12.99, 12.99, 12.79, 12.39, 12.39, 11.99, 12.38, 11.97, 11.97, 11.55, 11.39, 10.99, 10.8, 10.4, 10.4, 10.0, 10.0, 10.92, 10.92, 10.5, 10.0, 9.6, 9.38, 9.38, 9.38, 9.38, 9.38, 9.4, 9.13, 9.42, 9.42, 8.99, 8.56, 8.56, 8.56, 8.72, 8.72, 8.72, 9.13, 9.2, 9.58, 9.97, 9.67, 9.77, 9.86, 9.04, 8.54, 8.55, 8.55, 8.73, 8.73, 8.37, 8.41, 9.16, 9.04, 9.04, 9.08, 9.76, 17.59, 23.19, 27.58, 20.27, 14.38, -9.48, -1.72, 3.47, 7.73, 9.11, 10.75, 11.42, 11.17, 11.9, 11.9, 11.9, 12.5, 12.5, 12.43, 12.3, 12.3, 12.09, 12.3, 12.33, 12.33, 12.45, 13.05, 13.47, 13.35, 13.77, 13.39, 13.39, 13.39, 13.39, 13.39, 13.59, 13.8, 13.8, 13.8, 13.77, 13.35, 13.35, 13.35, 12.79, 12.79, 12.38, 11.97, 11.97, 11.55, 11.55, 11.39, 10.99, 10.8, 10.4, 10.0, 10.38, 10.5, 10.5, 10.0, 10.0, 9.6, 9.6, 9.38, 9.38, 8.99, 8.99, 9.55, 9.55, 9.85, 9.42, 9.42, 8.99, 8.99, 8.56, 8.56, 8.56, 8.99, 8.72, 9.13, 9.2, 9.6, 10.0, 10.0, 9.77, 9.4, 8.54, 8.93, 9.2, 8.93, 9.3, 9.09, 8.93, 8.54, 8.55, 8.79, 8.68, 8.73, 11.64, 14.03, 21.59, 26.29, 30.23, 14.79, 1.83, 1.38, 5.04, 8.43, 10.27, 11.5, 12.16, 11.93, 11.72, 11.72, 11.72, 12.5, 12.5, 12.42, 12.3, 12.53, 12.3, 12.21, 12.04, 12.45, 12.72, 13.15, 13.47, 13.35, 13.77, 13.77, 13.77, 13.77, 13.77, 13.77, 13.77, 14.19, 14.19, 14.19, 13.77, 13.35, 13.35, 13.35, 12.93, 12.52, 12.82, 12.39, 11.87, 11.87, 11.55, 10.99, 10.99, 10.8, 10.79, 10.92, 10.5, 10.17, 10.0, 10.0, 10.0, 9.6, 9.6, 9.38, 8.99, 9.4, 9.4, 9.55, 9.55, 9.85, 9.42, 9.42, 9.42, 8.99, 8.56, 8.56, 8.56, 8.56, 8.72, 9.13, 9.2, 9.2, 9.6, 9.6, 9.6, 8.99, 9.45, 9.45, 8.93, 8.93, 8.59, 8.73, 8.93, 8.54, 8.8, 8.55, 8.79, 10.0, 10.96, 13.39, 17.98, 23.96, 29.86, 24.79, 10.47, 7.06, 7.82, 10.1, 10.75, 12.4, 12.52, 12.45, 12.74, 12.74, 12.74, 12.42, 12.42, 12.42, 12.3, 12.53, 12.3, 11.92, 12.45, 12.45, 12.72, 13.15, 13.05, 13.67, 13.77, 13.77, 13.77, 13.77, 13.77, 13.77, 14.19, 14.19, 14.19, 14.19, 13.77, 13.35, 13.35, 12.93, 12.93, 12.82, 12.39, 12.39, 11.87, 11.87, 11.14, 10.99, 10.99, 10.92, 10.92, 10.58, 10.17, 10.0, 10.0, 10.0, 9.6, 9.6, 9.6, 9.6, 9.55, 9.55, 9.55, 9.55, 9.42, 9.85, 9.42, 9.42, 9.42, 8.99, 8.99, 8.56, 8.14, 8.56, 8.56, 8.72, 8.8, 8.8, 8.8, 9.55, 9.55, 9.4, 9.86, 9.86, 8.93, 8.93, 9.3, 8.73, 8.37, 8.54, 8.15, 8.34, 9.77, 10.6, 11.33, 13.59, 16.78, 21.61, 23.74, 23.03, 16.1, 11.06, 11.06, 11.06, 11.36, 13.02, 13.02, 13.13, 13.19, 13.19, 13.19, 12.42, 12.42, 12.3, 12.14, 12.53, 12.3, 12.04, 12.45, 12.45, 12.56, 13.15, 13.15, 13.47, 13.35, 13.77, 13.35, 13.35, 13.77, 13.77, 13.77, 14.19, 14.19, 14.19, 14.19, 13.35, 13.25, 13.25, 13.25, 12.82, 12.39, 12.39, 11.87, 11.55, 11.14, 10.99, 10.99, 10.99, 10.58, 10.58, 10.17, 10.17, 10.17, 9.77, 9.77, 9.77, 9.6, 9.2, 9.55, 9.55, 9.55, 9.55, 9.42, 9.42, 9.42, 9.42, 9.21, 9.21, 9.21, 9.21, 8.77, 8.14, 8.14, 8.3, 8.3, 8.72, 8.72, 9.13, 9.13, 8.99, 9.33, 8.8, 9.6, 8.93, 9.2, 8.55, 8.93, 9.2, 9.21, 9.77, 10.35, 10.84, 11.33, 13.15, 16.15, 20.23, 21.38, 20.39, 16.52, 15.59, 12.8, 12.7, 12.35, 13.2, 13.9, 13.99, 14.21, 14.21, 14.21, 12.3, 12.3, 12.3, 12.14, 11.87, 12.04, 12.04, 12.04, 12.45, 12.56, 12.98, 12.87, 13.15, 12.99, 13.35, 13.35, 13.35, 13.35, 13.77, 14.1, 14.1, 14.53, 14.53, 14.18, 13.67, 13.25, 13.25, 12.82, 12.82, 12.39, 12.1, 11.68, 11.14, 11.14, 11.14, 10.99, 10.99, 10.58, 10.2, 10.2, 10.17, 10.17, 10.17, 9.77, 9.77, 9.77, 9.2, 9.55, 9.55, 9.55, 9.42, 9.42, 9.64, 9.64, 9.64, 9.21, 9.34, 8.9, 9.34, 8.77, 8.56, 8.14, 7.89, 8.3, 8.3, 8.72, 8.72, 8.72, 8.58, 9.33, 9.21, 10.0, 10.0, 10.38, 8.8, 9.89, 9.97, 10.04, 10.04, 10.52, 10.84, 11.76, 12.96, 15.44, 19.27, 20.59, 17.98, 16.92, 15.28, 15.44, 13.38, 14.18, 14.52, 14.79, 15.2, 14.53, 14.53, 14.53, 12.3, 12.3, 12.58, 12.37, 12.3, 12.04, 12.04, 12.04, 12.04, 12.45, 12.45, 12.56, 12.79, 13.15, 12.99, 13.35, 13.35, 13.67, 13.67, 14.1, 14.1, 14.1, 14.18, 14.18, 13.75, 13.25, 13.25, 12.82, 12.82, 12.1, 12.1, 11.68, 11.14, 11.14, 11.14, 10.73, 10.58, 10.58, 10.58, 10.17, 10.17, 10.17, 10.17, 9.77, 9.77, 9.77, 10.08, 9.66, 9.66, 9.92, 9.64, 9.64, 9.64, 9.79, 9.34, 9.34, 9.34, 8.9, 8.9, 8.77, 8.56, 8.14, 7.89, 7.98, 8.4, 8.4, 8.3, 8.72, 8.58, 8.91, 9.21, 9.21, 9.21, 10.79, 9.89, 9.89, 9.97, 9.97, 9.75, 10.18, 10.78, 11.11, 12.3, 14.23, 17.92, 18.79, 17.8, 16.58, 15.59, 14.42, 13.74, 14.57, 14.91, 15.68, 15.44, 14.95, 14.95, 14.95, 12.3, 12.3, 12.58, 12.37, 12.3, 12.04, 12.04, 12.04, 12.04, 12.45, 12.45, 12.56, 12.79, 13.15, 12.99, 13.35, 13.35, 13.67, 13.67, 14.1, 14.1, 14.1, 14.18, 14.18, 13.75, 13.25, 13.25, 12.82, 12.82, 12.1, 12.1, 11.68, 11.14, 11.14, 11.14, 10.73, 10.58, 10.58, 10.58, 10.17, 10.17, 10.17, 10.17, 9.77, 9.77, 9.77, 10.08, 9.66, 9.66, 9.92, 9.64, 9.64, 9.64, 9.79, 9.34, 9.34, 9.34, 8.9, 8.9, 8.77, 8.56, 8.14, 7.89, 7.98, 8.4, 8.4, 8.3, 8.72, 8.58, 8.91, 9.21, 9.21, 9.21, 10.79, 9.89, 9.89, 9.97, 9.97, 9.75, 10.18, 10.78, 10.6, 11.37, 13.28, 15.37, 17.59, 17.11, 15.98, 15.71, 15.11, 14.17, 14.1, 14.65, 15.99, 15.54, 15.18, 15.18, 15.18]}, {"header": {"dx": 0.06612293990616946, "dy": 0.0552356325346848, "nx": 98, "ny": 59, "la1": 35.046912555036876, "la2": 31.78801023549047, "lo1": -121.43107172385933, "lo2": -114.95102361305473, "refTime": "2026041302", "parameterCategory": 1, "parameterNumber": 3}, "data": [5.67, 6.6, 7.92, 7.92, 9.22, 9.8, 9.8, 9.22, 8.68, 7.43, 7.44, 6.67, 7.28, 7.15, 6.58, 5.95, 6.87, 6.87, 7.9, 7.9, 8.22, 7.73, 7.9, 7.9, 8.69, 8.53, 8.97, 9.69, 9.34, 10.04, 10.04, 10.43, 9.89, 8.53, 3.39, 0.0, -4.6, -8.94, -6.8, -7.2, -8.49, 0.0, 8.22, 9.17, 8.58, 8.29, 10.0, 12.56, 12.96, 11.91, 11.53, 11.53, 10.57, 10.57, 10.11, 9.82, 10.11, 9.54, 8.99, 8.99, 8.14, 8.14, 7.26, 7.19, 8.1, 9.97, 12.65, 13.23, 13.23, 12.76, 12.02, 11.53, 11.38, 10.87, 8.65, 7.18, 5.81, 4.1, 3.69, 3.69, 2.92, 2.0, 1.18, 3.32, 11.64, 13.75, 12.93, 12.38, 11.88, 10.82, 9.8, 9.27, 9.27, 9.62, 9.62, 9.92, 10.12, 10.47, 5.5, 6.6, 7.43, 7.92, 9.22, 9.8, 10.1, 9.49, 8.68, 8.68, 7.2, 7.78, 6.76, 6.98, 8.22, 7.9, 7.27, 8.22, 7.9, 7.81, 8.53, 8.53, 9.27, 9.5, 8.35, 8.35, 8.35, 9.52, 9.81, 10.96, 12.04, 11.75, 11.92, 10.8, 9.33, 8.49, -0.0, -0.0, -0.0, 8.94, 9.83, 11.03, 11.6, 10.86, 11.7, 11.96, 13.91, 13.28, 12.57, 11.25, 10.75, 10.27, 9.73, 9.53, 9.11, 9.82, 9.82, 9.82, 8.99, 8.99, 8.14, 7.26, 7.19, 8.1, 10.12, 12.27, 12.86, 12.4, 12.4, 11.86, 11.7, 10.83, 10.19, 8.43, 8.43, 6.14, 4.8, 4.1, 3.69, 3.69, 2.92, 2.0, 1.18, 3.32, 11.64, 13.75, 12.93, 12.38, 11.88, 10.82, 9.8, 9.27, 9.27, 9.62, 9.62, 9.92, 10.12, 10.47, 5.5, 6.6, 7.43, 7.92, 9.22, 9.8, 10.1, 9.49, 8.94, 8.41, 6.72, 5.9, 7.44, 8.22, 6.98, 6.98, 7.9, 7.9, 8.59, 8.85, 8.49, 9.08, 9.67, 10.19, 11.09, 9.08, 8.82, 8.93, 9.55, 10.84, 12.58, 13.72, 13.29, 12.66, 9.77, 8.49, 8.05, 8.94, 8.91, 10.08, 11.03, 12.87, 13.39, 14.11, 14.7, 14.22, 14.22, 12.96, 10.12, 9.92, 10.22, 9.44, 9.44, 9.44, 9.24, 9.73, 9.82, 9.27, 8.99, 8.4, 8.14, 7.44, 8.67, 10.85, 12.99, 12.94, 12.86, 12.4, 11.86, 11.38, 10.47, 9.99, 8.4, 7.42, 6.52, 5.09, 3.79, 3.79, 3.1, 2.9, 3.04, 2.28, 3.07, 10.79, 13.07, 13.88, 12.72, 12.79, 11.88, 10.36, 9.27, 9.57, 8.49, 8.78, 8.78, 8.78, 9.48, 10.02, 5.14, 6.4, 7.43, 7.92, 9.22, 9.8, 10.1, 9.49, 8.68, 7.44, 6.48, 6.15, 7.73, 7.9, 7.9, 7.9, 8.22, 8.53, 9.27, 8.49, 8.49, 8.38, 8.73, 8.82, 9.02, 11.09, 9.81, 9.2, 9.16, 10.24, 11.59, 12.42, 13.21, 13.19, 11.56, 9.97, 9.46, 9.58, 10.4, 12.85, 15.12, 17.09, 16.48, 15.01, 13.03, 11.7, 10.75, 9.27, 9.57, 9.62, 8.87, 9.16, 8.87, 9.16, 9.67, 9.16, 8.99, 8.99, 8.4, 7.74, 7.26, 8.67, 11.21, 13.38, 13.2, 12.79, 12.4, 11.88, 11.79, 10.61, 10.87, 10.25, 8.13, 6.18, 4.95, 3.07, 1.89, 1.77, 2.07, 1.9, 1.77, 1.33, 7.26, 14.03, 14.6, 14.42, 13.89, 12.79, 10.94, 9.8, 9.2, 8.68, 7.2, 7.2, 7.89, 8.97, 10.02, 10.59, 5.14, 5.99, 6.6, 7.92, 9.8, 9.8, 10.1, 9.49, 7.92, 7.44, 6.48, 6.15, 7.44, 6.98, 6.87, 7.44, 8.22, 9.27, 9.27, 9.82, 10.41, 8.73, 9.2, 9.08, 9.1, 10.48, 10.61, 10.62, 10.84, 9.79, 10.28, 10.28, 11.58, 11.28, 10.6, 10.0, 9.48, 9.96, 12.52, 17.02, 18.06, 15.31, 12.82, 11.21, 10.82, 10.3, 9.8, 9.27, 9.27, 8.78, 8.49, 8.49, 9.02, 9.8, 9.67, 9.16, 9.16, 8.14, 7.74, 7.26, 7.62, 10.99, 13.97, 14.18, 13.81, 13.16, 12.4, 12.76, 12.63, 11.7, 11.48, 12.31, 11.8, 8.4, 4.34, 2.72, 0.96, 0.96, 1.19, 0.99, 1.05, 4.48, 12.98, 15.15, 14.71, 15.02, 14.19, 12.45, 9.8, 10.47, 8.94, 7.44, 6.21, 6.67, 7.43, 8.91, 9.48, 10.09, 5.14, 5.14, 6.4, 8.46, 9.06, 9.8, 10.1, 8.46, 7.92, 7.44, 6.48, 5.9, 7.15, 6.7, 6.98, 6.98, 8.93, 9.27, 10.04, 10.87, 10.87, 10.24, 11.99, 11.6, 10.8, 11.45, 10.68, 10.46, 10.6, 10.84, 9.33, 9.39, 9.76, 11.71, 11.72, 11.5, 10.23, 9.21, 12.33, 17.58, 15.53, 13.57, 11.58, 11.9, 11.44, 12.16, 11.25, 9.92, 9.27, 8.97, 8.67, 9.48, 9.8, 9.8, 9.16, 8.72, 8.14, 7.5, 7.5, 7.44, 9.69, 13.35, 14.93, 14.33, 14.18, 13.76, 12.4, 12.05, 12.29, 12.15, 11.22, 10.97, 11.73, 11.27, 7.87, 4.6, 2.13, 1.13, 1.2, 1.2, 2.06, 13.19, 15.99, 16.03, 14.99, 14.75, 13.59, 11.42, 10.52, 9.62, 8.41, 6.98, 6.0, 6.21, 7.69, 8.91, 9.48, 10.09, 5.14, 5.14, 6.85, 8.46, 9.06, 9.06, 9.06, 8.46, 7.68, 7.44, 6.48, 6.04, 6.87, 6.87, 7.24, 7.9, 8.53, 8.85, 9.62, 10.41, 10.79, 11.9, 12.81, 13.99, 13.97, 13.19, 14.42, 13.75, 11.92, 9.6, 10.18, 9.33, 9.76, 9.46, 10.4, 12.11, 11.29, 9.8, 9.8, 12.56, 14.16, 12.46, 12.39, 12.13, 12.16, 10.92, 11.38, 10.52, 9.8, 10.43, 10.43, 9.92, 9.8, 8.87, 8.31, 7.26, 7.26, 6.36, 6.0, 7.96, 12.18, 14.03, 15.01, 14.88, 14.42, 13.34, 12.65, 11.68, 11.25, 10.57, 9.81, 8.65, 8.7, 8.05, 6.1, 5.0, 2.43, 1.25, 3.32, 7.69, 8.85, 15.47, 16.66, 16.27, 15.18, 13.77, 12.45, 11.06, 9.91, 7.69, 6.65, 5.86, 5.99, 7.44, 7.89, 8.61, 8.83, 9.48, 4.08, 5.5, 6.85, 8.2, 9.06, 9.06, 8.46, 8.46, 7.68, 6.42, 5.75, 6.04, 6.58, 7.9, 8.85, 7.9, 8.53, 9.17, 9.17, 10.47, 9.48, 8.05, 11.16, 14.53, 12.65, 13.03, 14.53, 14.94, 12.65, 11.5, 11.91, 12.07, 12.39, 11.87, 10.0, 10.19, 9.17, 7.27, 8.22, 9.97, 12.3, 13.15, 13.39, 13.05, 11.38, 10.43, 9.92, 10.52, 11.33, 11.03, 10.03, 9.48, 9.36, 8.87, 7.69, 6.76, 5.8, 4.99, 5.6, 10.19, 12.79, 14.18, 14.51, 14.39, 13.65, 13.34, 11.83, 10.52, 9.62, 6.99, 5.81, 4.47, 3.42, 2.21, 1.15, 1.01, 1.23, 3.01, 7.19, 11.38, 13.15, 15.19, 15.46, 15.02, 14.19, 12.6, 11.07, 9.87, 7.44, 6.76, 5.48, 4.81, 5.81, 7.44, 7.69, 8.23, 8.73, 9.8, 4.08, 5.5, 6.85, 7.36, 9.06, 9.06, 8.46, 7.59, 6.85, 6.21, 5.98, 6.45, 7.78, 8.1, 8.85, 8.85, 9.17, 9.48, 9.48, 9.48, 9.48, 7.44, 9.8, 13.57, 10.37, 7.9, 8.18, 11.53, 12.52, 13.28, 13.86, 15.2, 14.9, 12.87, 9.62, 6.45, 5.0, 6.71, 6.42, 8.38, 11.6, 12.27, 11.33, 8.85, 7.79, 7.43, 9.6, 10.75, 11.68, 12.05, 10.75, 9.17, 8.87, 8.31, 6.98, 4.99, 4.12, 4.48, 5.77, 12.56, 13.81, 14.18, 14.25, 14.33, 13.02, 12.22, 10.68, 8.43, 6.02, 4.34, 2.09, 0.0, 0.0, -0.98, -0.89, -1.1, 1.47, 9.44, 12.52, 13.97, 14.53, 13.95, 14.85, 14.56, 13.38, 11.21, 9.48, 6.96, 5.93, 4.93, 4.65, 5.11, 6.0, 8.46, 9.22, 8.78, 9.02, 9.8, 4.08, 5.33, 6.85, 7.36, 9.06, 9.06, 7.59, 7.59, 6.85, 6.21, 6.44, 5.8, 5.86, 7.11, 7.69, 8.38, 8.94, 8.85, 8.85, 9.48, 9.17, 9.17, 11.53, 11.9, 11.9, 8.22, 6.64, 10.18, 13.19, 14.03, 14.75, 16.54, 15.65, 11.53, 7.24, 5.75, 4.8, 6.64, 8.22, 9.17, 10.37, 9.76, 8.22, 6.45, 5.98, 6.92, 7.82, 9.64, 10.99, 11.68, 10.87, 10.12, 9.36, 8.05, 6.96, 5.6, 4.08, 3.68, 9.3, 13.09, 13.99, 14.9, 15.61, 14.18, 13.39, 11.83, 9.35, 6.99, 3.47, 0.0, 0.0, -1.03, -3.22, -3.32, -3.22, -1.42, 6.8, 13.89, 14.17, 13.82, 14.31, 13.85, 14.06, 13.82, 12.16, 10.3, 7.62, 6.31, 5.06, 4.06, 4.33, 4.99, 7.13, 8.46, 8.94, 8.46, 8.31, 9.8, 4.38, 5.33, 6.85, 7.59, 8.18, 8.18, 7.59, 6.1, 5.92, 5.55, 5.36, 6.2, 6.2, 6.73, 6.4, 6.4, 7.0, 7.0, 6.35, 6.9, 7.8, 7.8, 10.61, 9.22, 8.85, 9.17, 8.23, 9.2, 11.6, 12.39, 9.17, 11.6, 8.53, 3.53, 2.19, 4.48, 6.97, 8.22, 8.53, 10.43, 10.77, 9.48, 7.65, 6.76, 5.54, 5.95, 7.9, 8.82, 9.02, 9.64, 11.69, 12.65, 12.57, 11.95, 11.69, 11.76, 12.16, 11.16, 12.07, 13.86, 16.26, 16.3, 15.18, 14.74, 13.76, 13.1, 12.2, 10.97, 5.49, -8.1, -5.6, -2.81, -3.1, -5.81, -4.87, 2.72, 13.07, 14.65, 14.96, 14.7, 13.61, 12.75, 12.09, 11.83, 10.43, 8.97, 6.72, 5.4, 4.17, 3.53, 4.12, 6.51, 7.69, 8.2, 7.92, 7.68, 8.78, 10.86, 4.38, 5.73, 6.85, 7.59, 8.18, 8.18, 6.6, 6.1, 5.92, 5.55, 5.55, 6.2, 6.6, 6.4, 5.45, 5.08, 5.08, 5.99, 4.62, 4.88, 4.75, 4.62, 4.95, 5.98, 4.98, 5.8, 7.51, 5.15, 6.71, 3.25, 3.39, 3.68, 3.68, 0.0, 0.0, 3.25, 5.1, 7.02, 9.5, 10.09, 10.43, 8.83, 7.95, 6.5, 5.7, 7.13, 9.7, 10.09, 10.48, 10.48, 11.81, 14.03, 15.24, 16.71, 16.48, 15.37, 14.42, 12.65, 12.96, 14.22, 17.3, 17.48, 15.11, 13.99, 14.59, 16.78, 18.6, 18.31, 16.3, 17.88, -14.53, -13.57, -2.54, -2.54, 0.0, 12.74, 14.84, 14.56, 13.7, 12.9, 13.39, 12.48, 11.38, 11.06, 9.8, 8.21, 6.24, 4.81, 3.53, 3.97, 4.12, 5.99, 6.96, 6.9, 6.64, 6.85, 8.31, 9.8, 4.38, 5.73, 6.4, 8.18, 8.18, 7.16, 6.6, 5.92, 4.89, 4.74, 5.15, 6.4, 6.6, 6.8, 7.0, 6.8, 5.31, 4.98, 3.73, 3.53, 3.53, 4.58, 4.58, 3.53, 4.58, 4.98, 5.45, 6.0, 4.24, 1.39, 2.1, 5.2, 5.2, 5.0, 3.82, 5.06, 5.7, 7.9, 8.82, 9.16, 8.85, 8.85, 7.85, 6.69, 6.95, 8.8, 10.05, 11.3, 11.09, 10.68, 10.4, 11.2, 12.98, 14.84, 15.85, 16.09, 15.83, 12.92, 9.86, 12.96, 16.06, 16.02, 13.99, 12.79, 15.91, 16.89, 20.46, 24.1, 22.97, 21.73, 21.46, -9.92, -15.2, 11.2, 12.33, 15.27, 15.59, 14.88, 12.78, 11.7, 10.31, 9.73, 9.11, 8.57, 9.67, 9.06, 7.36, 4.65, 4.15, 4.15, 5.2, 5.57, 6.48, 6.9, 5.73, 7.13, 8.31, 10.43, 4.38, 5.73, 6.2, 6.95, 7.16, 6.4, 6.4, 4.89, 4.89, 4.89, 5.31, 5.31, 5.48, 6.8, 7.2, 7.2, 5.98, 5.64, 3.88, 3.76, 4.52, 5.5, 5.67, 6.02, 6.02, 7.0, 6.95, 6.4, 6.2, 6.43, 7.44, 9.08, 7.24, 6.7, 6.42, 6.95, 7.21, 8.37, 7.9, 8.24, 8.22, 7.27, 6.98, 7.9, 8.18, 9.04, 8.99, 10.27, 10.27, 10.68, 10.27, 10.68, 12.89, 12.74, 11.26, 9.89, 11.2, 12.64, 11.52, 11.91, 13.83, 13.86, 13.43, 14.28, 14.51, 15.08, 17.25, 19.31, 20.39, 19.91, 16.15, 11.7, -4.66, 12.07, 14.42, 15.38, 15.72, 14.31, 12.2, 11.13, 9.53, 7.89, 6.52, 6.4, 8.2, 7.89, 7.68, 6.73, 5.64, 6.45, 5.75, 5.98, 5.99, 5.55, 4.65, 6.42, 8.51, 10.77, 4.38, 4.74, 6.2, 6.4, 6.95, 6.4, 5.31, 4.89, 4.89, 4.89, 5.31, 5.48, 5.48, 5.64, 5.98, 6.14, 5.65, 4.35, 4.23, 4.95, 5.85, 5.85, 6.56, 7.2, 7.71, 9.49, 9.88, 9.39, 9.89, 11.2, 11.09, 10.41, 9.42, 7.59, 7.27, 7.68, 8.55, 7.64, 8.73, 6.58, 7.59, 8.22, 7.59, 7.59, 7.81, 8.18, 9.04, 9.45, 9.86, 9.6, 8.93, 9.2, 8.43, 6.79, 7.15, 7.51, 7.27, 10.12, 12.57, 13.28, 11.8, 11.21, 12.04, 12.94, 13.02, 13.88, 15.68, 15.27, 13.92, 14.22, 14.95, 11.37, 11.8, 13.86, 15.38, 14.51, 13.92, 12.17, 11.28, 10.05, 8.68, 6.2, 4.65, 4.21, 3.55, 5.81, 7.44, 8.23, 8.61, 8.61, 6.94, 6.21, 6.21, 5.43, 5.16, 8.31, 10.77, 10.77, 3.36, 4.74, 5.15, 5.31, 5.31, 5.31, 5.31, 4.89, 4.89, 3.76, 4.24, 4.24, 4.24, 5.64, 5.35, 5.5, 4.35, 4.12, 4.12, 5.23, 6.19, 6.74, 7.2, 8.33, 9.73, 10.33, 12.36, 12.7, 13.02, 13.03, 13.34, 12.82, 11.69, 9.08, 8.03, 7.28, 8.0, 8.0, 8.73, 7.59, 7.27, 7.59, 7.59, 7.56, 7.56, 8.18, 8.18, 8.8, 8.55, 7.68, 8.03, 7.27, 6.14, 5.36, 6.01, 6.01, 7.15, 8.93, 10.73, 10.37, 9.97, 9.48, 10.0, 10.21, 10.6, 11.56, 11.68, 12.11, 13.55, 13.91, 12.35, 11.02, 13.96, 16.31, 16.0, 14.78, 12.78, 10.73, 8.61, 8.11, 7.89, 7.2, 5.67, 4.43, 3.34, 4.9, 7.13, 9.21, 9.57, 9.57, 7.95, 5.18, 5.62, 5.16, 6.21, 8.73, 9.8, 9.8, 3.65, 4.74, 5.31, 5.15, 5.15, 5.31, 4.11, 3.88, 3.76, 3.76, 3.88, 4.24, 4.37, 4.37, 4.12, 4.12, 3.79, 4.01, 4.12, 5.37, 5.94, 5.78, 8.11, 9.47, 10.77, 11.38, 12.57, 13.58, 13.9, 14.79, 15.19, 15.19, 14.39, 12.42, 7.58, 7.58, 8.15, 9.2, 7.27, 7.27, 8.38, 6.32, 6.95, 6.32, 7.27, 7.27, 8.03, 8.03, 8.03, 6.14, 6.14, 4.2, 4.2, 5.21, 5.86, 6.64, 6.95, 6.17, 5.0, 5.99, 7.02, 6.58, 7.56, 8.18, 9.04, 8.99, 10.46, 11.2, 12.45, 13.23, 11.04, 9.05, 13.89, 16.24, 15.35, 13.14, 11.84, 10.17, 9.29, 7.99, 7.98, 8.68, 7.59, 6.2, 6.87, 7.51, 7.51, 9.5, 9.34, 7.92, 6.0, 4.81, 4.99, 5.73, 8.31, 9.17, 9.48, 9.48, 3.65, 3.65, 4.89, 5.31, 5.15, 3.98, 3.76, 3.76, 3.88, 3.88, 3.88, 4.0, 2.72, 2.72, 4.0, 4.0, 3.79, 3.9, 3.72, 4.86, 5.78, 6.19, 8.4, 10.17, 11.63, 12.03, 13.95, 14.29, 14.56, 15.59, 16.02, 16.24, 15.99, 13.58, 10.12, 7.51, 7.28, 8.03, 7.59, 7.27, 6.95, 6.95, 6.95, 6.95, 7.27, 7.27, 7.27, 7.27, 6.14, 6.14, 4.4, 4.4, 4.4, 5.46, 6.14, 6.95, 5.9, 4.6, 5.0, 5.98, 6.2, 6.87, 7.9, 8.18, 8.4, 9.11, 9.75, 10.4, 8.82, 8.4, 6.91, 8.46, 12.43, 14.46, 11.7, 10.19, 8.77, 8.9, 8.78, 7.78, 7.42, 8.88, 8.28, 9.21, 8.83, 9.17, 8.83, 8.66, 8.68, 7.88, 7.88, 5.73, 4.81, 7.69, 9.8, 9.8, 9.17, 9.17, 3.65, 3.65, 3.65, 4.89, 4.74, 3.65, 3.76, 3.76, 3.88, 3.88, 3.58, 2.5, 2.57, 2.8, 4.0, 3.69, 3.58, 3.79, 4.6, 4.47, 4.95, 7.71, 9.77, 11.7, 10.75, 12.92, 11.69, 14.57, 15.31, 14.39, 15.59, 15.74, 15.45, 15.06, 13.02, 10.12, 7.68, 6.64, 6.4, 6.98, 5.98, 5.1, 5.29, 5.46, 5.7, 5.7, 6.14, 6.14, 6.14, 5.46, 4.4, 4.4, 4.4, 5.46, 6.14, 6.42, 6.95, 7.59, 8.22, 7.26, 6.2, 6.87, 7.27, 7.28, 8.4, 9.63, 9.4, 8.15, 4.99, 2.54, 3.62, 6.81, 10.46, 10.42, 6.58, 2.52, 1.15, 1.93, 3.99, 6.28, 6.66, 6.14, 7.38, 7.69, 8.51, 7.19, 6.95, 6.1, 6.8, 5.99, 6.93, 6.02, 6.2, 8.73, 11.1, 9.8, 8.91, 8.91, 2.28, 3.65, 3.65, 3.65, 4.74, 3.65, 3.76, 3.76, 3.58, 3.58, 3.58, 2.31, 2.57, 2.57, 2.57, 2.5, 3.58, 3.58, 4.5, 4.37, 5.37, 7.71, 9.47, 10.46, 10.89, 11.7, 13.06, 13.71, 14.75, 14.75, 15.59, 15.35, 15.06, 15.06, 14.33, 12.29, 10.03, 8.64, 6.88, 5.0, 4.8, 4.73, 4.73, 4.73, 4.8, 6.2, 6.42, 6.42, 6.14, 4.2, 4.2, 5.21, 5.21, 6.14, 5.72, 6.64, 8.38, 7.56, 7.59, 7.26, 6.42, 7.27, 6.95, 8.18, 8.58, 8.99, 8.72, 6.44, 3.97, 1.83, 2.64, 3.5, 3.75, 1.37, -1.1, -4.67, -6.74, -6.74, 1.11, 4.6, 5.46, 4.95, 4.24, 4.98, 5.36, 4.99, 4.38, 4.21, 4.66, 4.34, 4.95, 6.19, 8.18, 10.12, 10.12, 9.87, 8.41, 8.41, 2.28, 3.65, 3.65, 3.65, 3.65, 3.65, 3.65, 3.47, 3.58, 3.42, 2.24, 2.31, 2.38, 2.38, 2.38, 2.38, 2.24, 2.24, 1.97, 2.98, 4.88, 7.4, 8.33, 8.93, 9.42, 10.19, 11.38, 13.97, 14.85, 15.23, 15.74, 15.06, 15.06, 15.06, 14.67, 13.38, 11.42, 9.17, 7.78, 6.51, 5.52, 5.46, 5.46, 5.46, 5.52, 5.95, 6.14, 6.14, 5.29, 4.4, 4.0, 5.86, 5.86, 6.95, 7.27, 6.3, 7.27, 7.27, 6.7, 6.42, 6.42, 6.14, 7.68, 9.2, 8.99, 9.1, 8.53, 7.14, 5.99, 4.65, 4.4, 5.25, 0.0, -10.17, -8.9, -8.9, -11.43, -9.74, -3.16, 3.9, 6.52, 6.34, 5.85, 4.89, 4.58, 3.85, 3.88, 3.69, 2.5, 2.35, 3.88, 6.29, 9.2, 9.06, 8.78, 9.16, 7.74, 7.74, 2.28, 2.48, 3.65, 3.65, 3.65, 3.36, 3.36, 3.47, 3.32, 3.42, 3.18, 3.18, 2.15, 2.21, 2.38, 2.38, 2.31, 2.09, 2.09, 3.47, 4.67, 5.56, 6.74, 7.63, 8.9, 10.73, 11.78, 13.11, 13.91, 14.47, 14.85, 15.35, 15.06, 15.06, 14.67, 13.74, 12.11, 9.8, 8.85, 7.08, 6.51, 5.46, 5.21, 5.46, 6.05, 6.14, 5.95, 5.06, 4.83, 5.86, 5.59, 5.86, 6.95, 6.95, 6.95, 7.27, 7.59, 7.9, 5.52, 5.9, 5.59, 6.58, 8.37, 8.72, 9.1, 9.66, 8.85, 7.65, 8.69, 10.09, 9.8, 12.99, 11.96, -19.84, -10.8, -9.16, -11.64, -10.65, -1.93, 2.57, 5.23, 6.16, 6.45, 5.62, 5.19, 4.11, 3.2, 3.49, 4.5, 2.81, 5.81, 8.46, 9.12, 8.99, 7.89, 7.89, 6.78, 6.78, 2.28, 2.28, 2.28, 3.65, 3.36, 3.36, 3.47, 3.22, 3.32, 3.18, 3.18, 3.18, 3.28, 3.28, 2.21, 2.21, 2.15, 2.09, 3.18, 3.47, 4.67, 5.41, 6.37, 7.21, 9.17, 10.46, 12.08, 13.31, 14.29, 13.97, 14.36, 14.09, 14.56, 14.56, 14.29, 13.38, 12.46, 10.43, 8.67, 7.36, 6.79, 6.05, 5.46, 5.52, 6.23, 6.23, 6.45, 4.83, 4.6, 5.86, 5.86, 6.14, 6.95, 6.95, 7.27, 7.59, 7.9, 8.75, 6.98, 4.0, 5.21, 8.55, 9.48, 9.77, 9.3, 9.42, 9.17, 8.49, 9.3, 9.52, 11.09, 13.28, 7.07, -10.19, -7.9, 2.45, 0.0, -1.83, -1.73, 0.0, 1.01, 2.88, 3.58, 4.26, 3.62, 4.37, 4.66, 6.17, 7.2, 7.6, 7.34, 8.78, 8.72, 7.93, 7.25, 6.65, 5.48, 5.48, 1.15, 1.15, 2.28, 2.28, 3.36, 3.12, 3.12, 3.22, 3.09, 4.18, 4.18, 4.3, 4.03, 4.03, 3.07, 2.21, 2.21, 3.09, 3.28, 4.15, 5.23, 6.69, 7.2, 7.73, 8.43, 9.92, 11.16, 12.85, 14.67, 14.75, 13.97, 13.97, 13.71, 13.71, 13.39, 13.01, 11.96, 10.75, 8.97, 7.36, 6.05, 5.78, 6.05, 6.05, 5.66, 5.59, 5.95, 5.46, 5.46, 5.46, 6.58, 5.46, 5.46, 5.59, 6.14, 7.27, 7.27, 7.9, 6.2, 5.95, 7.07, 8.48, 10.0, 9.66, 9.08, 10.43, 10.37, 10.55, 9.1, 7.81, 5.45, 6.99, 8.1, 6.14, 8.6, 4.67, 1.46, 0.0, -1.63, -3.79, -4.42, -1.67, 0.0, 0.0, 2.38, 4.0, 5.48, 6.8, 8.05, 10.05, 8.58, 7.89, 6.67, 6.0, 5.2, 4.81, 3.96, 3.96, 1.15, 1.15, 2.28, 2.28, 2.28, 3.12, 3.12, 3.0, 3.09, 4.18, 4.18, 4.18, 4.03, 4.03, 3.79, 3.07, 3.28, 3.18, 4.18, 5.41, 5.98, 7.18, 8.43, 8.67, 9.39, 9.39, 11.43, 13.39, 14.33, 14.75, 14.75, 14.36, 13.33, 13.02, 13.39, 12.46, 11.96, 10.47, 9.57, 8.07, 6.05, 5.78, 6.14, 6.42, 6.14, 5.52, 4.8, 4.5, 4.8, 5.04, 4.8, 5.1, 4.0, 4.6, 5.59, 6.95, 7.27, 5.72, 6.42, 6.95, 7.87, 7.6, 8.55, 8.82, 9.08, 11.53, 10.41, 9.88, 8.22, 2.23, 0.86, 3.39, 8.34, 13.29, 10.6, 6.05, 2.25, -2.4, -5.99, -6.92, -8.18, -6.8, -3.92, -1.01, 2.31, 5.67, 6.85, 7.36, 8.46, 9.73, 9.16, 7.26, 5.48, 4.98, 4.39, 3.96, 3.32, 3.32, 1.06, 1.06, 1.15, 2.28, 2.11, 2.11, 3.12, 3.0, 3.09, 4.05, 4.18, 4.18, 4.03, 3.79, 3.79, 3.79, 3.07, 3.28, 4.3, 5.26, 6.16, 7.2, 8.43, 9.67, 9.92, 10.3, 11.91, 13.59, 14.85, 15.14, 14.75, 14.47, 14.09, 13.23, 12.46, 12.46, 11.96, 11.38, 10.47, 8.97, 7.08, 6.42, 6.14, 6.58, 6.42, 6.05, 4.96, 4.5, 4.8, 5.04, 4.73, 4.5, 5.46, 5.46, 6.14, 6.14, 5.06, 5.36, 6.64, 8.03, 7.9, 8.03, 6.64, 8.24, 9.86, 10.41, 10.04, 9.88, 5.95, 3.82, 2.6, 3.65, 7.27, 11.9, 15.65, 12.66, 9.4, 4.22, -12.87, -12.14, -11.37, -9.12, -4.81, 1.42, 7.06, 7.88, 6.99, 7.68, 7.95, 7.89, 8.22, 7.59, 5.55, 4.55, 3.82, 3.55, 3.19, 3.19, 1.06, 1.06, 1.06, 1.06, 2.11, 2.11, 1.96, 1.96, 3.0, 3.09, 4.18, 4.18, 4.03, 3.69, 3.79, 3.79, 3.79, 4.3, 4.3, 5.26, 6.16, 7.0, 7.98, 9.41, 9.41, 11.13, 11.91, 13.23, 14.47, 14.75, 14.47, 14.13, 13.59, 13.15, 12.8, 12.8, 12.8, 12.24, 11.7, 11.06, 9.27, 8.07, 7.18, 6.14, 6.05, 6.05, 5.18, 5.04, 4.8, 4.8, 4.5, 4.71, 4.4, 5.28, 5.9, 5.46, 5.06, 4.6, 5.03, 6.87, 6.87, 6.48, 7.9, 8.72, 10.48, 9.38, 9.3, 6.71, 5.98, 5.4, 4.33, 3.32, 5.02, 9.24, 14.06, 18.55, 13.82, 12.46, 7.98, -12.71, -12.39, -13.19, 0.0, 6.0, 7.68, 7.54, 7.57, 7.54, 7.43, 6.57, 5.86, 5.79, 6.27, 4.38, 4.1, 3.82, 3.19, 3.19, 0.0, 0.0, 1.06, 1.06, 2.11, 1.96, 1.96, 1.96, 3.0, 4.21, 4.05, 4.18, 3.92, 3.69, 3.69, 3.48, 3.79, 4.03, 4.3, 5.62, 6.56, 7.42, 8.2, 8.91, 9.16, 10.83, 11.91, 13.39, 14.09, 14.09, 13.76, 13.76, 13.74, 13.74, 13.15, 12.8, 12.8, 12.57, 12.01, 11.38, 9.87, 8.21, 7.48, 6.14, 5.52, 5.28, 5.18, 4.96, 4.5, 4.5, 4.5, 4.71, 5.52, 6.05, 6.31, 5.9, 5.21, 4.6, 6.01, 6.32, 5.9, 6.31, 7.74, 9.3, 9.77, 9.27, 5.92, 4.6, 3.39, 3.96, 3.81, 1.83, 2.06, 4.98, 10.19, 11.0, 12.18, 11.84, 12.3, 5.14, -13.44, -6.4, 2.72, 5.33, 5.46, 5.02, 6.47, 7.0, 6.62, 5.63, 4.66, 4.66, 5.36, 4.91, 4.87, 3.87, 3.23, 3.23, 0.0, 0.0, 1.06, 0.99, 1.96, 1.96, 1.96, 2.02, 3.0, 3.22, 4.05, 4.18, 4.03, 3.79, 3.79, 3.48, 3.69, 3.92, 4.18, 4.47, 5.62, 6.56, 7.42, 8.2, 8.91, 9.39, 11.06, 12.87, 14.29, 13.76, 13.76, 13.38, 13.38, 13.38, 13.38, 12.8, 12.8, 12.01, 12.01, 11.06, 10.47, 8.49, 7.26, 5.9, 5.63, 5.28, 5.14, 5.57, 5.57, 4.5, 4.71, 5.28, 5.78, 6.05, 5.95, 6.31, 5.32, 5.7, 6.64, 6.11, 5.63, 6.48, 7.4, 9.3, 8.94, 7.95, 6.45, 3.61, 0.0, 0.0, 0.99, 2.9, 2.06, 0.0, 0.0, 1.27, 5.3, 7.63, 9.85, 10.13, 4.45, 2.89, 5.06, 4.87, 5.06, 4.52, 4.52, 4.29, 4.41, 3.69, 3.69, 3.8, 3.2, 4.95, 4.29, 3.17, 3.34, 3.34, 0.0, 0.0, 0.99, 0.99, 1.96, 1.96, 2.9, 3.0, 3.0, 4.21, 3.0, 3.18, 3.92, 3.79, 3.9, 3.79, 4.53, 3.69, 4.18, 4.18, 5.62, 6.56, 6.56, 6.56, 7.42, 8.91, 10.75, 12.52, 13.9, 13.39, 13.01, 13.01, 13.01, 13.01, 13.38, 12.8, 12.29, 12.29, 11.36, 11.36, 10.05, 8.41, 7.82, 6.14, 4.73, 5.9, 6.4, 7.2, 7.2, 7.36, 6.57, 5.52, 5.78, 5.78, 5.7, 5.95, 5.95, 6.31, 6.44, 6.4, 5.36, 6.18, 7.74, 7.74, 7.27, 7.59, 7.42, 5.99, 1.33, -1.39, 1.39, 5.6, 6.6, 2.96, -10.02, -8.0, 0.0, 2.28, 5.05, 6.61, 7.33, 7.74, 7.52, 7.08, 6.1, 5.15, 3.62, 2.25, 1.51, 2.25, 2.23, 1.72, 2.3, 3.58, 3.39, 3.2, 2.55, 2.55, 0.96, 0.96, 0.99, 1.96, 1.96, 2.9, 2.9, 3.0, 3.0, 3.32, 3.09, 3.0, 3.92, 3.92, 3.79, 3.79, 4.67, 4.67, 4.95, 5.26, 5.62, 5.62, 5.62, 6.16, 7.0, 8.91, 10.27, 11.8, 12.82, 13.2, 13.01, 13.02, 12.65, 12.65, 12.46, 11.96, 12.29, 11.7, 11.06, 10.61, 10.33, 8.94, 8.1, 6.7, 4.8, 5.45, 6.3, 7.68, 8.41, 7.89, 6.84, 5.52, 5.52, 5.52, 5.78, 6.05, 6.31, 6.57, 6.31, 6.44, 5.63, 5.63, 6.77, 6.69, 6.64, 6.64, 6.95, 7.56, 6.2, 4.6, 5.9, 6.71, 7.59, 5.65, -1.82, -12.96, -7.22, 0.0, 1.08, 2.93, 6.25, 8.28, 9.02, 8.0, 7.35, 6.18, 4.27, 2.08, 0.74, 0.75, 0.77, 0.79, 0.75, 1.54, 2.25, 2.37, 2.49, 2.49, 0.96, 0.96, 1.9, 1.96, 1.96, 2.9, 2.9, 3.0, 3.22, 3.09, 3.09, 3.09, 3.09, 4.03, 4.03, 3.79, 4.67, 4.8, 4.8, 5.98, 5.98, 6.34, 6.16, 6.16, 7.76, 9.54, 10.75, 11.44, 13.39, 12.45, 12.65, 13.39, 13.01, 12.11, 12.11, 11.96, 11.96, 11.7, 11.06, 10.33, 10.33, 9.77, 7.95, 6.41, 5.52, 5.35, 6.53, 7.43, 6.98, 6.72, 5.52, 4.8, 4.8, 4.8, 5.38, 5.78, 5.52, 5.76, 5.76, 6.0, 6.44, 5.63, 5.2, 5.82, 5.72, 4.71, 5.86, 6.42, 6.76, 5.32, 5.72, 3.61, 3.96, 4.54, 4.03, -6.93, -8.51, 0.0, 1.05, 1.68, 4.35, 6.2, 6.77, 6.31, 5.56, 4.99, 4.3, 2.96, 0.84, 0.0, 0.0, 0.0, 0.81, 1.58, 1.54, 2.3, 2.35, 2.35, 0.96, 0.96, 1.9, 1.96, 1.96, 1.96, 2.9, 3.0, 3.0, 2.09, 2.09, 3.09, 3.09, 3.09, 4.03, 4.03, 4.67, 5.49, 6.27, 6.45, 6.81, 6.81, 7.2, 7.76, 8.65, 9.27, 10.75, 10.99, 11.53, 13.02, 12.27, 13.02, 12.46, 12.46, 12.46, 12.46, 11.96, 11.7, 11.06, 10.33, 10.33, 10.05, 8.2, 6.48, 5.76, 5.57, 6.21, 6.64, 7.44, 6.24, 5.04, 4.8, 4.8, 5.13, 5.38, 5.64, 5.64, 5.52, 5.76, 6.0, 5.76, 5.2, 5.86, 5.15, 4.94, 5.46, 4.4, 4.0, 4.4, 4.8, 4.25, 1.07, 0.0, 0.0, 3.77, 2.31, 0.0, 1.77, 1.95, 1.68, 3.18, 4.01, 4.1, 3.24, 3.09, 3.01, 3.09, 3.06, 1.73, 1.06, 1.11, 1.9, 2.55, 2.49, 2.95, 2.56, 3.1, 3.1, 1.9, 1.9, 1.9, 1.9, 1.96, 1.96, 2.11, 2.18, 2.02, 2.09, 2.09, 3.42, 3.09, 3.09, 3.92, 4.03, 4.95, 5.81, 6.27, 7.2, 7.57, 7.78, 7.98, 8.7, 9.27, 9.73, 10.75, 10.92, 12.27, 12.27, 11.8, 12.16, 12.11, 12.11, 12.46, 11.96, 11.38, 11.38, 11.06, 10.33, 10.33, 9.49, 8.72, 6.96, 5.57, 5.57, 5.99, 6.64, 6.64, 5.78, 5.06, 4.83, 5.38, 5.38, 5.64, 5.64, 5.9, 6.05, 5.52, 5.76, 6.45, 6.14, 5.59, 5.86, 5.44, 6.3, 6.87, 4.88, 2.97, 4.05, 4.62, 2.82, 0.0, -0.96, 3.11, 7.97, 6.17, 1.87, 1.0, 1.56, 2.28, 2.32, 1.73, 1.78, 1.78, 2.0, 3.14, 3.01, 3.49, 2.43, 3.01, 2.28, 2.63, 2.41, 2.35, 3.04, 3.1, 3.1, 1.9, 1.9, 1.9, 1.9, 1.96, 2.11, 2.11, 2.18, 2.09, 2.09, 2.31, 3.42, 3.42, 3.09, 4.05, 4.81, 4.81, 5.64, 6.43, 7.36, 7.89, 8.28, 8.7, 8.7, 9.54, 9.73, 10.75, 11.42, 12.27, 12.16, 12.16, 11.76, 11.76, 11.76, 11.63, 11.06, 11.38, 10.77, 11.06, 10.33, 9.49, 9.23, 8.16, 6.42, 5.78, 5.57, 5.99, 6.42, 6.42, 6.67, 5.52, 5.29, 5.64, 5.64, 6.14, 6.14, 6.42, 6.05, 6.05, 6.84, 6.67, 6.45, 5.86, 5.86, 6.14, 5.29, 4.66, 4.2, 2.83, 2.71, 4.01, 5.08, 4.1, 1.03, 2.38, 7.49, 8.62, 4.42, 2.6, 1.09, 1.59, 1.78, 1.83, 1.93, 1.78, 2.65, 3.04, 3.41, 3.07, 2.5, 3.1, 1.53, 1.06, 0.79, 0.77, 0.77, 2.23, 2.23, 1.9, 1.9, 1.9, 1.9, 1.96, 2.11, 2.18, 2.18, 2.24, 2.24, 2.31, 3.42, 3.42, 3.32, 4.05, 4.18, 4.81, 5.64, 6.43, 7.36, 8.05, 8.93, 9.35, 9.35, 9.54, 10.27, 10.75, 10.92, 11.42, 11.76, 11.76, 11.76, 11.42, 10.97, 10.97, 10.17, 10.47, 9.77, 10.05, 9.23, 9.23, 7.71, 8.05, 6.9, 6.21, 5.57, 5.78, 6.21, 6.42, 6.67, 5.98, 5.9, 6.04, 6.53, 6.14, 6.14, 6.05, 6.05, 6.05, 6.24, 6.48, 6.41, 5.7, 5.2, 4.66, 4.6, 3.35, 2.06, 1.11, 2.04, 3.92, 5.0, 5.73, 3.57, 2.43, 5.35, 8.27, 8.32, 5.41, 4.2, 4.66, 3.79, 3.58, 3.28, 4.16, 3.98, 4.21, 2.72, 2.13, 1.17, 0.0, 0.0, 0.0, 0.0, 0.0, 0.0, 0.77, 0.77, 0.92, 0.92, 0.96, 1.9, 2.11, 2.11, 1.1, 2.18, 2.24, 2.24, 3.69, 3.42, 3.42, 3.42, 4.05, 4.66, 5.64, 5.64, 6.8, 7.76, 8.05, 8.68, 9.52, 9.94, 10.11, 10.27, 10.75, 10.92, 11.42, 11.3, 11.3, 11.3, 10.97, 10.43, 9.87, 9.87, 9.22, 8.72, 8.97, 8.28, 8.28, 8.28, 7.82, 5.8, 4.6, 4.8, 4.81, 5.18, 6.67, 6.67, 7.41, 6.86, 6.83, 6.14, 6.14, 6.14, 6.05, 6.05, 5.76, 6.0, 6.48, 6.92, 5.7, 4.88, 4.66, 3.11, 2.21, 2.33, 2.46, 3.3, 4.99, 6.24, 6.64, 6.19, 5.51, 1.63, 2.64, 4.49, 4.99, 7.21, 9.4, 8.33, 7.4, 6.42, 5.56, 4.67, 3.86, 3.33, 1.93, 0.0, 0.0, -1.63, -1.42, -1.1, -2.02, -1.61, -1.51, 0.0, 0.92, 0.92, 0.96, 0.96, 0.99, 1.06, 1.1, 2.18, 2.43, 2.43, 2.5, 2.5, 3.69, 4.47, 5.11, 5.48, 5.48, 6.09, 6.43, 7.0, 7.76, 9.09, 9.67, 9.94, 10.11, 10.27, 10.43, 10.92, 10.43, 10.97, 10.75, 10.43, 10.43, 9.87, 9.22, 9.22, 8.2, 8.72, 8.72, 8.05, 8.05, 8.28, 7.59, 5.4, 5.06, 4.8, 4.81, 5.18, 6.9, 6.67, 7.68, 7.14, 7.13, 6.14, 6.14, 5.64, 5.52, 5.52, 6.0, 6.0, 6.48, 6.92, 6.2, 4.88, 3.52, 2.83, 2.83, 4.44, 4.88, 5.72, 6.17, 6.76, 6.0, 6.54, 6.97, 1.78, -5.63, -1.46, 2.54, 8.62, 10.17, 8.33, 8.0, 7.04, 6.11, 5.21, 4.45, 4.06, 2.72, 0.95, 0.0, -1.63, -3.58, -2.35, -1.77, -2.31, -3.04, -1.51, 0.92, 0.92, 0.92, 0.96, 0.99, 1.06, 1.1, 2.35, 2.43, 2.43, 2.5, 2.5, 3.69, 4.47, 5.11, 5.48, 6.24, 5.91, 6.43, 6.8, 8.2, 8.91, 9.09, 9.67, 10.11, 9.82, 9.97, 10.43, 9.62, 9.57, 9.87, 9.8, 9.8, 9.22, 8.94, 9.22, 8.2, 8.2, 8.72, 8.72, 8.05, 8.05, 7.59, 6.21, 4.8, 6.21, 6.2, 7.36, 7.36, 7.95, 7.96, 7.41, 6.59, 5.9, 5.64, 5.64, 5.52, 5.76, 6.0, 6.0, 6.48, 6.92, 4.83, 4.4, 4.83, 4.83, 4.71, 4.44, 5.72, 5.45, 5.45, 4.99, 4.9, 7.06, 8.27, 8.99, -3.16, -12.01, 0.0, 8.05, 8.2, 7.04, 6.37, 6.11, 5.21, 5.13, 4.38, 3.99, 2.53, 1.83, 0.0, -1.38, -3.1, -3.29, -2.81, -3.32, -3.82, -3.04, 0.92, 0.92, 0.92, 0.96, 0.96, 1.06, 2.28, 2.35, 2.35, 2.24, 2.43, 3.58, 4.47, 4.47, 4.96, 5.81, 6.24, 5.91, 6.6, 7.54, 7.97, 8.43, 8.65, 9.54, 10.11, 10.11, 9.97, 9.67, 9.62, 9.62, 9.57, 9.8, 9.22, 9.22, 8.94, 8.94, 8.94, 8.66, 8.2, 8.46, 8.46, 7.82, 6.4, 5.6, 5.2, 5.8, 7.28, 8.05, 8.46, 8.2, 8.51, 7.68, 6.59, 5.64, 5.64, 5.64, 5.9, 5.76, 5.76, 5.35, 5.78, 6.21, 5.6, 5.06, 4.83, 4.83, 3.8, 4.83, 4.44, 5.21, 5.45, 4.99, 3.77, 4.9, 7.28, 10.66, 11.49, 4.34, 6.18, 10.91, 8.28, 7.46, 6.22, 5.69, 4.4, 3.8, 3.14, 2.48, 1.65, 0.87, 0.0, -1.19, -2.45, -4.28, -4.81, -4.33, -4.33, -4.33, 0.89, 0.89, 0.92, 0.92, 0.96, 2.04, 2.28, 2.35, 3.22, 3.22, 4.34, 5.3, 5.3, 5.3, 4.96, 5.81, 5.48, 6.24, 6.94, 7.59, 7.54, 7.97, 9.12, 9.73, 9.73, 10.27, 9.97, 9.67, 9.67, 9.32, 8.78, 9.27, 8.94, 8.94, 8.94, 8.66, 8.66, 8.38, 7.95, 8.2, 7.36, 7.36, 6.2, 5.6, 5.4, 5.55, 6.1, 7.82, 8.2, 7.95, 8.23, 7.41, 5.64, 4.83, 5.06, 5.06, 5.14, 5.14, 5.35, 5.35, 5.57, 5.78, 5.2, 5.29, 5.06, 4.83, 4.83, 4.83, 4.96, 5.72, 5.21, 3.81, 3.77, 4.13, 7.44, 10.25, 12.2, 14.94, 16.41, 15.12, 11.83, 10.4, 8.46, 6.76, 5.08, 4.14, 2.47, 0.87, 0.0, 0.0, 0.0, -1.03, -3.29, -5.18, -5.4, -5.4, -5.4, -5.4, 0.0, 0.0, 0.0, 0.92, 1.03, 2.04, 2.28, 2.28, 3.36, 5.14, 5.99, 6.6, 6.6, 6.6, 6.6, 5.81, 5.81, 6.6, 6.24, 7.98, 8.22, 8.65, 9.12, 9.73, 9.73, 10.27, 9.97, 9.67, 8.87, 8.87, 8.49, 8.49, 8.38, 8.66, 8.94, 8.38, 8.38, 7.69, 7.69, 6.9, 7.13, 7.13, 6.0, 5.4, 4.32, 4.81, 6.4, 7.36, 7.44, 7.68, 7.41, 6.86, 4.83, 4.83, 5.06, 5.06, 5.52, 5.14, 5.35, 5.35, 5.57, 5.78, 6.21, 5.4, 5.29, 5.06, 4.83, 5.06, 6.01, 5.72, 4.2, 2.83, 3.65, 5.57, 6.08, 7.49, 9.92, 12.05, 14.01, 16.7, 15.59, 12.49, 11.57, 9.8, 7.33, 5.34, 3.35, 0.85, 0.0, -0.89, -1.03, -2.13, -4.12, -7.18, -6.92, -6.92, -6.92, -6.92, 0.0, 0.0, 0.0, 0.0, 1.03, 1.03, 1.15, 2.28, 3.47, 5.14, 6.78, 7.32, 7.98, 7.59, 6.94, 6.94, 6.94, 7.32, 7.32, 7.98, 8.65, 9.27, 9.73, 9.73, 9.73, 10.27, 9.97, 9.16, 8.87, 8.59, 8.05, 8.49, 7.89, 8.38, 8.38, 7.69, 7.43, 7.69, 6.9, 6.9, 6.9, 6.0, 5.8, 5.2, 5.0, 5.4, 6.0, 7.44, 7.44, 6.7, 6.2, 5.7, 4.6, 4.83, 5.06, 5.29, 5.29, 5.52, 5.75, 5.35, 4.62, 5.2, 5.4, 5.2, 5.4, 5.06, 4.83, 4.96, 5.46, 4.66, 3.11, 4.2, 4.99, 5.98, 6.48, 5.93, 6.73, 8.03, 11.53, 13.64, 14.64, 15.37, 14.19, 12.63, 9.45, 6.91, 4.55, 2.4, 0.0, -1.04, -3.14, -4.75, -6.21, -5.99, -6.94, -6.94, -6.94, -6.94, 0.0, 0.0, 0.0, 0.0, 0.0, 1.03, 1.03, 2.11, 4.52, 6.4, 7.5, 7.74, 7.98, 7.59, 7.59, 7.59, 7.59, 7.59, 7.98, 7.32, 8.85, 9.73, 9.73, 9.73, 9.73, 9.73, 9.44, 9.16, 8.87, 8.87, 8.05, 8.21, 7.62, 8.1, 7.43, 6.67, 6.67, 6.67, 6.0, 5.8, 5.8, 5.8, 5.8, 5.2, 5.0, 5.4, 5.8, 7.19, 7.19, 6.7, 6.2, 5.46, 4.6, 4.83, 5.06, 4.4, 4.6, 4.8, 5.0, 5.0, 5.0, 5.0, 5.4, 5.4, 5.43, 5.29, 4.83, 4.71, 4.66, 4.66, 4.2, 5.45, 6.44, 5.75, 5.78, 5.6, 5.28, 6.94, 8.68, 11.35, 13.67, 14.18, 15.62, 13.41, 10.75, 8.6, 5.26, 3.57, 0.86, 0.0, -3.04, 0.0, 0.0, 3.82, 5.8, 5.8, 5.8, 5.8, 0.0, 0.0, 0.0, 0.0, 0.96, 0.96, 2.04, 3.12, 4.97, 6.78, 7.5, 7.1, 7.98, 7.98, 7.98, 7.98, 7.98, 7.98, 7.98, 7.98, 8.85, 9.73, 9.73, 9.73, 9.73, 9.73, 9.44, 8.58, 8.31, 8.31, 8.05, 7.19, 7.62, 6.72, 5.99, 6.44, 5.6, 5.6, 5.8, 5.8, 5.8, 5.8, 5.8, 5.4, 5.0, 5.4, 5.6, 6.08, 6.08, 6.45, 5.95, 5.46, 4.96, 4.2, 4.4, 4.4, 4.6, 4.8, 5.0, 5.0, 4.8, 4.15, 4.32, 5.4, 5.64, 5.29, 4.0, 4.0, 5.06, 5.98, 5.72, 6.17, 5.95, 5.0, 4.81, 4.64, 5.43, 7.1, 7.98, 8.99, 11.05, 13.17, 15.21, 14.88, 12.54, 8.94, 4.63, 2.89, 2.92, 5.4, 8.85, 10.01, 9.66, 10.4, 11.6, 11.26, 11.26, 11.26, 0.0, 0.0, 0.0, 0.86, 0.86, 1.9, 1.96, 3.81, 5.81, 6.57, 7.5, 7.5, 7.1, 7.32, 7.98, 7.98, 7.98, 7.98, 7.98, 7.74, 8.14, 8.85, 9.73, 9.73, 9.12, 9.12, 8.85, 8.58, 8.31, 7.69, 7.44, 7.44, 6.53, 5.99, 5.99, 4.99, 6.21, 6.44, 6.44, 6.44, 5.6, 5.6, 5.6, 5.4, 5.0, 5.4, 5.6, 5.6, 5.86, 5.43, 5.21, 4.99, 4.56, 4.0, 4.2, 4.4, 4.6, 4.6, 4.8, 4.8, 3.98, 4.36, 4.72, 4.9, 5.64, 4.8, 4.83, 5.63, 5.9, 4.88, 4.6, 5.45, 4.8, 5.0, 4.81, 5.78, 5.6, 7.03, 8.14, 8.72, 9.27, 12.54, 14.52, 16.62, 13.51, 9.3, 5.06, 2.81, 7.18, 9.02, 9.16, 8.93, 9.67, 10.48, 10.99, 11.33, 11.33, 11.33, 0.0, 0.0, 0.0, 0.86, 0.86, 1.77, 2.9, 4.66, 5.81, 6.78, 6.78, 6.78, 7.73, 7.73, 7.32, 7.32, 7.32, 7.32, 7.98, 7.98, 8.4, 8.85, 9.12, 9.12, 9.12, 8.18, 8.18, 7.93, 7.69, 7.44, 6.76, 6.76, 5.8, 5.6, 5.99, 5.78, 6.21, 6.21, 6.21, 6.44, 6.44, 5.6, 5.6, 5.4, 5.2, 5.6, 5.8, 5.6, 5.64, 5.21, 4.99, 4.78, 4.78, 4.2, 4.2, 4.4, 4.4, 4.6, 4.6, 3.98, 3.98, 4.36, 4.54, 4.9, 5.64, 5.32, 5.72, 5.46, 4.88, 3.7, 2.39, 2.7, 4.18, 5.0, 5.98, 6.48, 6.31, 7.19, 8.31, 9.16, 8.87, 10.08, 14.55, 15.9, 12.77, 8.92, 3.83, 6.15, 9.48, 9.53, 8.53, 8.53, 10.19, 11.33, 11.37, 10.99, 10.99, 10.99, 0.0, 0.0, 0.81, 0.81, 1.61, 2.63, 3.57, 4.66, 5.81, 6.78, 6.78, 6.78, 6.99, 6.99, 6.99, 7.73, 7.32, 7.32, 7.32, 8.4, 8.4, 8.85, 8.43, 8.43, 8.18, 8.18, 8.18, 7.21, 6.98, 6.98, 6.76, 6.76, 5.8, 5.6, 6.72, 6.48, 6.92, 6.21, 6.21, 6.21, 6.21, 6.21, 6.21, 5.4, 5.4, 5.18, 4.43, 5.6, 5.64, 5.21, 4.99, 4.78, 4.78, 3.32, 3.49, 4.2, 4.4, 3.65, 3.65, 3.82, 3.82, 3.25, 3.39, 4.72, 4.9, 5.77, 5.98, 5.72, 4.6, 3.45, 3.87, 3.87, 2.58, 4.36, 5.75, 6.48, 6.72, 7.36, 7.89, 8.05, 8.05, 8.05, 10.3, 10.9, 9.94, 5.42, 4.85, 6.57, 9.02, 9.8, 9.4, 9.48, 10.85, 12.27, 11.16, 10.37, 10.37, 10.37, 0.0, 0.78, 0.74, 1.51, 1.61, 2.39, 3.46, 4.66, 5.81, 6.78, 6.78, 6.99, 6.99, 6.99, 6.99, 6.99, 6.99, 7.73, 7.73, 7.73, 7.73, 8.18, 8.18, 8.18, 7.43, 7.43, 7.43, 7.21, 6.98, 6.98, 6.76, 6.76, 6.53, 6.53, 5.99, 5.78, 6.21, 5.98, 5.98, 5.98, 6.21, 6.21, 6.21, 5.2, 4.99, 4.28, 5.36, 5.6, 5.86, 5.43, 4.99, 4.78, 3.99, 3.32, 3.49, 3.49, 3.49, 3.65, 3.65, 3.65, 3.82, 3.25, 3.39, 4.54, 4.48, 5.64, 5.32, 5.98, 5.45, 5.45, 5.45, 5.1, 5.46, 5.46, 5.21, 5.98, 6.48, 6.72, 6.72, 6.31, 7.19, 7.19, 7.69, 6.28, 5.01, 4.22, 4.23, 6.18, 7.68, 9.5, 10.43, 10.92, 11.57, 11.69, 10.59, 9.48, 9.48, 9.48, 0.74, 0.74, 1.46, 1.51, 2.39, 2.39, 3.46, 5.46, 5.81, 6.78, 6.78, 6.18, 6.18, 6.18, 6.99, 6.99, 6.99, 6.99, 6.99, 7.73, 8.18, 8.18, 7.43, 7.43, 7.43, 7.43, 7.21, 7.21, 6.2, 6.0, 6.0, 5.8, 5.8, 5.8, 5.99, 5.78, 6.21, 5.98, 5.98, 5.98, 5.98, 5.2, 5.2, 4.81, 3.97, 3.97, 5.4, 5.86, 5.86, 5.43, 5.21, 4.18, 3.99, 3.49, 3.32, 3.32, 3.49, 3.49, 3.49, 3.65, 3.65, 3.82, 3.82, 4.15, 5.2, 5.86, 5.99, 6.2, 5.98, 5.21, 5.21, 6.69, 6.98, 7.59, 5.98, 6.86, 6.67, 6.48, 5.57, 5.57, 6.48, 7.19, 6.78, 4.12, 6.07, 3.97, 2.72, 5.63, 10.12, 11.28, 11.93, 11.69, 11.93, 11.72, 9.8, 9.13, 9.13, 9.13, 0.74, 0.74, 1.46, 1.46, 2.39, 3.14, 4.24, 5.28, 5.46, 5.46, 5.63, 5.99, 6.18, 6.18, 6.18, 6.18, 6.18, 6.99, 6.99, 7.21, 7.43, 7.43, 7.43, 6.18, 6.6, 6.4, 6.4, 6.4, 6.2, 6.0, 6.0, 5.8, 5.8, 5.6, 5.99, 5.78, 6.21, 5.98, 5.98, 5.0, 5.2, 5.2, 4.81, 3.97, 3.82, 5.0, 5.2, 5.64, 5.64, 5.43, 5.21, 4.18, 3.65, 3.65, 3.49, 3.32, 3.32, 3.32, 3.49, 3.49, 3.49, 3.65, 3.82, 4.8, 5.0, 6.45, 5.86, 5.92, 5.1, 4.4, 4.88, 5.98, 6.98, 6.98, 7.27, 6.71, 6.86, 6.24, 6.24, 6.15, 6.41, 6.94, 7.78, 7.93, 9.17, 4.8, 2.58, 13.15, 13.41, 13.27, 12.99, 12.0, 10.92, 10.63, 9.5, 7.93, 7.93, 7.93, 0.74, 0.74, 1.46, 1.55, 2.31, 3.34, 4.24, 5.46, 5.46, 5.46, 5.46, 5.14, 6.18, 6.18, 6.18, 6.18, 6.18, 6.18, 6.18, 6.8, 7.66, 6.18, 6.18, 6.18, 5.99, 5.99, 6.4, 6.2, 6.2, 6.0, 5.16, 4.99, 4.99, 4.81, 5.18, 4.99, 5.4, 5.2, 5.2, 5.0, 5.0, 3.97, 3.97, 3.82, 5.0, 4.8, 5.21, 5.21, 5.21, 5.21, 5.21, 4.18, 3.65, 2.83, 2.83, 2.7, 2.57, 2.57, 2.57, 3.49, 3.49, 3.49, 3.65, 4.6, 5.75, 5.98, 6.45, 5.43, 4.23, 3.87, 4.88, 5.7, 5.7, 6.24, 6.24, 5.98, 7.36, 6.41, 6.57, 6.57, 7.26, 7.1, 8.8, 11.6, 11.67, 7.05, 6.16, 9.48, 13.75, 13.88, 12.56, 11.6, 10.75, 9.34, 8.94, 7.93, 7.93, 7.93, 0.74, 0.74, 1.46, 2.31, 2.31, 3.23, 4.1, 5.28, 5.28, 4.98, 4.66, 4.81, 5.14, 5.3, 6.18, 6.18, 6.18, 6.18, 6.18, 6.8, 6.37, 6.37, 6.37, 5.3, 5.14, 5.14, 5.14, 5.33, 5.33, 5.16, 4.99, 4.99, 4.81, 4.81, 5.18, 4.99, 5.4, 5.2, 5.0, 4.15, 3.82, 3.82, 5.0, 5.0, 4.8, 4.8, 5.21, 5.21, 4.99, 4.99, 3.82, 3.82, 2.95, 2.83, 2.83, 2.7, 2.7, 2.57, 2.57, 2.57, 2.7, 3.49, 3.65, 4.6, 4.8, 5.0, 5.0, 5.43, 4.18, 4.88, 5.1, 4.6, 5.95, 6.2, 6.5, 5.1, 4.88, 5.7, 6.15, 6.31, 6.98, 6.65, 7.89, 10.8, 10.11, 9.67, 7.4, 12.83, 13.79, 13.86, 12.65, 11.2, 10.61, 9.12, 8.68, 8.2, 8.2, 8.2, 0.74, 0.74, 1.55, 2.31, 3.34, 4.1, 4.36, 4.81, 4.98, 4.24, 4.38, 4.81, 5.14, 5.3, 5.3, 5.3, 5.3, 5.3, 5.3, 5.3, 5.46, 5.46, 5.46, 5.3, 5.14, 5.14, 5.14, 4.97, 4.81, 3.94, 3.81, 3.96, 3.96, 4.81, 4.99, 4.99, 5.4, 4.32, 3.97, 3.82, 4.62, 5.0, 5.0, 5.0, 4.8, 4.8, 5.21, 4.99, 4.18, 4.18, 3.82, 3.82, 2.95, 2.83, 2.83, 2.83, 2.7, 2.57, 2.57, 2.57, 2.57, 3.49, 3.65, 4.6, 4.6, 4.8, 4.8, 4.8, 4.99, 4.05, 4.05, 5.95, 5.95, 7.15, 6.24, 5.1, 4.88, 4.4, 5.7, 6.15, 5.0, 5.06, 5.02, 5.4, 5.53, 7.74, 12.39, 12.8, 12.95, 13.03, 11.36, 10.75, 9.54, 9.39, 7.92, 7.43, 7.43, 7.43, 1.55, 1.55, 1.55, 2.31, 3.34, 4.1, 5.11, 4.98, 4.98, 4.24, 4.38, 4.66, 4.21, 5.3, 5.3, 5.3, 5.3, 5.3, 5.3, 5.46, 5.46, 5.46, 5.46, 5.3, 5.14, 5.14, 4.97, 4.97, 3.94, 3.81, 3.81, 3.96, 3.96, 4.64, 4.99, 4.99, 3.97, 3.97, 4.81, 4.62, 5.0, 5.0, 5.0, 4.8, 4.8, 4.8, 4.8, 3.82, 3.82, 3.82, 3.82, 2.83, 2.95, 2.83, 2.83, 2.83, 2.7, 2.7, 2.57, 2.44, 2.57, 2.57, 3.49, 4.4, 4.4, 4.4, 3.82, 3.82, 4.18, 4.23, 4.23, 5.95, 5.95, 6.2, 6.24, 5.98, 4.88, 4.66, 5.21, 4.44, 3.53, 2.61, 2.72, 2.65, 3.6, 6.39, 10.91, 14.86, 11.06, 11.06, 11.06, 10.1, 8.68, 8.68, 7.66, 6.6, 6.6, 6.6, 1.55, 1.55, 2.31, 3.04, 3.34, 4.1, 4.81, 4.98, 4.98, 4.71, 4.38, 4.38, 4.81, 5.14, 5.3, 5.14, 5.14, 5.3, 5.3, 5.3, 5.46, 5.46, 5.46, 5.46, 5.14, 4.08, 4.08, 4.08, 3.94, 3.81, 3.81, 3.96, 4.81, 4.64, 4.99, 4.99, 4.99, 4.81, 4.81, 4.62, 4.62, 4.62, 4.44, 4.44, 4.44, 4.8, 4.6, 3.82, 3.82, 3.82, 3.82, 2.83, 2.83, 2.83, 2.83, 1.84, 1.84, 1.84, 1.84, 1.75, 2.44, 2.44, 3.32, 3.32, 3.49, 3.49, 3.65, 3.65, 3.99, 3.11, 4.4, 4.8, 5.95, 4.6, 5.7, 5.1, 4.6, 3.45, 1.09, 2.82, 2.71, 2.61, 2.63, 3.59, 3.68, 6.51, 10.2, 12.98, 11.99, 10.47, 9.88, 9.61, 8.4, 8.11, 7.0, 6.56, 6.56, 6.56, 2.31, 2.31, 2.31, 3.04, 3.96, 4.81, 4.81, 4.81, 4.98, 4.71, 4.87, 5.15, 5.63, 5.99, 5.14, 5.14, 5.14, 5.14, 5.3, 4.34, 4.34, 4.47, 4.47, 4.05, 4.21, 4.08, 4.08, 3.94, 3.94, 3.81, 4.65, 4.49, 4.64, 4.64, 4.64, 4.99, 4.99, 4.81, 5.57, 5.57, 4.62, 4.62, 4.62, 4.44, 4.44, 4.44, 4.6, 3.82, 3.82, 3.82, 2.83, 2.83, 1.93, 1.93, 1.93, 1.84, 0.93, 0.89, 0.93, 1.75, 2.57, 2.44, 3.15, 3.32, 3.32, 3.49, 3.49, 3.49, 3.81, 3.11, 3.45, 5.0, 5.0, 4.15, 4.4, 2.82, 2.49, 2.23, 2.23, 2.1, 2.71, 2.71, 3.46, 4.54, 5.78, 7.49, 9.99, 10.88, 10.91, 10.69, 9.73, 8.51, 7.92, 7.4, 6.52, 5.81, 5.81, 5.81, 2.31, 2.31, 3.14, 3.87, 4.1, 4.81, 4.81, 4.81, 4.81, 4.98, 4.98, 5.86, 6.4, 5.63, 5.99, 5.14, 5.14, 4.21, 4.21, 4.34, 4.34, 4.34, 4.05, 4.05, 3.93, 4.08, 4.08, 3.94, 3.94, 4.65, 4.65, 4.49, 4.64, 4.64, 4.64, 4.47, 4.81, 4.81, 4.81, 4.62, 4.62, 4.62, 4.62, 4.44, 4.44, 4.44, 3.67, 3.51, 3.51, 2.71, 1.93, 1.93, 1.93, 0.98, 0.93, 0.93, 0.93, 0.89, 0.89, 1.75, 2.57, 2.44, 3.15, 2.9, 3.06, 3.06, 3.32, 3.49, 3.81, 2.97, 3.45, 3.45, 3.45, 4.32, 2.82, 2.82, 2.49, 2.49, 3.25, 3.39, 2.94, 3.42, 4.1, 5.34, 6.97, 9.4, 10.3, 11.4, 11.99, 12.02, 9.99, 8.74, 8.13, 6.53, 5.94, 4.6, 4.6, 4.6, 2.31, 2.31, 3.14, 3.87, 4.1, 4.81, 4.81, 4.81, 4.81, 4.98, 4.98, 5.86, 6.4, 5.63, 5.99, 5.14, 5.14, 4.21, 4.21, 4.34, 4.34, 4.34, 4.05, 4.05, 3.93, 4.08, 4.08, 3.94, 3.94, 4.65, 4.65, 4.49, 4.64, 4.64, 4.64, 4.47, 4.81, 4.81, 4.81, 4.62, 4.62, 4.62, 4.62, 4.44, 4.44, 4.44, 3.67, 3.51, 3.51, 2.71, 1.93, 1.93, 1.93, 0.98, 0.93, 0.93, 0.93, 0.89, 0.89, 1.75, 2.57, 2.44, 3.15, 2.9, 3.06, 3.06, 3.32, 3.49, 3.81, 2.97, 3.45, 3.45, 3.45, 4.32, 2.82, 2.82, 2.49, 2.49, 3.25, 3.39, 2.94, 3.53, 4.06, 5.31, 7.23, 8.8, 11.41, 12.22, 12.57, 11.88, 10.9, 10.25, 10.25, 8.0, 5.65, 3.79, 3.79, 3.79]}]